Tous vos exploits sur  Logo Planète Marathon le site 100% Marathon

Marathon de Buenos Aires (Argentine)              Donnez votre avis sur l'édition 2018

Le 23/09/2018 - Edition 2018 - 7050 arrivants.                                                       

Clmt. Temps officiel/puce Nom Prénom Club Organisme Catégorie
1 2:05:21 / 2:05:20 Kipkemboi Saina Emmanuel (KEN) M (+)
2 2:09:19 / 2:09:18 Kiptum Barnabas (KEN) M (+)
3 2:11:19 / 2:11:19 Pacheco Cristhian (PER) M (+)
4 2:13:41 / 2:13:41 Ayala Derlis Ramon (PAR) M (+)
5 2:14:00 / 2:13:59 Kipkogei Kosgei Godfrei (KEN) M (+)
6 2:16:29 / 2:16:28 Ito Nelson (PER) M (+)
7 2:16:47 / 2:16:46 Barzola Miguel Angel (ARG) M (+)
8 2:18:04 / 2:18:03 Mendez Martin Ezequiel (ARG) M (+)
9 2:18:42 / 2:18:39 Belisario Max Henry (PER) M (+)
10 2:19:48 / 2:19:45 Das Neves Silva Valdison (BRA) M (+)
11 2:20:48 / 2:20:48 Mastromarino Mariano Nicolas (ARG) M (+)
12 2:22:11 / 2:22:08 Yanez Enzo Diego (CHI) M (+)
13 2:24:17 / 2:24:16 MacHacuay Raul (PER) M (+)
14 2:26:01 / 2:26:01 Sanchez Jose Felix (ARG) M (+)
15 2:26:32 / 2:26:31 Poblete Jesus Antonio (ARG) M (+)
16 2:26:45 / 2:26:44 Pires Da Silva Alex (BRA) M (+)
17 2:27:17 / 2:27:16 Gomez Pedro (ARG) M (+)
18 2:28:09 / 2:28:07 Souza Do Nascimento Samuel (BRA) M (+)
19 2:28:11 / 2:28:10 Santillan Leandro (ARG) M (+)
20 2:28:12 / 2:28:02 Ortega Jacques Yeltsin Francis (BRA) M (+)
21 2:28:15 / 2:28:15 Alan Bizerra De Oliv M (+)
22 2:29:03 / 2:29:02 Jerono Kiplagat Vivian (KEN) F (+)
23 2:30:16 / 2:30:14 Pacheco Da Cruz Adriano M (+)
24 2:31:06 / 2:31:03 Messias Da Silva Leonardo Moraes M (+)
25 2:31:26 / 2:31:23 Elizeche Orlando Javier M (+)
26 2:32:26 / 2:32:24 Verdugo Nicolas Antonio M (+)
27 2:32:58 / 2:32:56 Jerotich Leah (KEN) F (+)
28 2:33:55 / 2:33:53 Zapatta Babois Raul Alfredo M (+)
29 2:34:08 / 2:34:07 Sobrero Santiago M (+)
30 2:34:56 / 2:34:55 Bosho Amelework Fikad (ETH) F (+)
31 2:35:17 / 2:35:15 Chemaoi Faith Jeruto (KEN) F (+)
32 2:35:28 / 2:35:20 Dos Santos Pedro Neto Barb M (+)
33 2:35:29 / 2:35:28 Chacha Rosa Alva (ECU) F (+)
34 2:35:52 / 2:35:44 Esconjauregui Leandro Martin M (+)
35 2:36:46 / 2:36:40 Da Silva Reginaldo Jose M (+)
36 2:37:12 / 2:37:10 Dos Santos Carlos Antonio M (+)
37 2:39:10 / 2:39:04 Sanchez Rodrigo Martin M (+)
38 2:39:27 / 2:39:25 Canchanya Clara (PER) F (+)
39 2:40:38 / 2:40:30 Espinosa Nicolas M (+)
40 2:40:45 / 2:40:36 Chalub Victor Sebastia M (+)
41 2:40:58 / 2:40:55 MacHacuay Gladys Celia (PER) F (+)
42 2:41:33 / 2:41:20 Airaldo German Airaldo German M (+)
43 2:42:11 / 2:42:09 Ortiz Mariela Mabel (ARG) F (+)
44 2:42:35 / 2:42:24 Badino Alejo M (+)
45 2:42:38 / 2:42:36 Gomez Marcela Cristin (ARG) F (+)
46 2:43:00 / 2:42:47 Alonso Julian M (+)
47 2:43:19 / 2:43:00 Pereyra Sergio Gustavo M (+)
48 2:43:28 / 2:43:18 Farias Pablo M (+)
49 2:43:30 / 2:43:19 De Moraes Neto Alvaro Afonso M (+)
50 2:43:48 / 2:43:47 Peralta Maria De Los An (ARG) F (+)
51 2:44:06 / 2:44:01 Perez Flores Luis Esteban M (+)
52 2:45:20 / 2:45:19 Barrientos Varas Ricardo M (+)
53 2:45:38 / 2:45:28 Gauna Marcos M (+)
54 2:45:38 / 2:45:31 Sandoval Facundo Martin M (+)
55 2:46:13 / 2:46:11 Pena Juan M (+)
56 2:46:18 / 2:46:08 Dutra Juliano Ramos M (+)
57 2:47:15 / 2:47:01 Aranda Celis Hector Andres M (+)
58 2:47:26 / 2:47:17 Lima Miguel Federico M (+)
59 2:47:38 / 2:47:27 Ribeiro Heleno M (+)
60 2:47:48 / 2:47:42 Santos Manuel M (+)
61 2:47:48 / 2:47:46 Condori Nicolasa (PER) F (+)
62 2:47:57 / 2:47:56 Ramirez Cornejo Alexis Rodrigo M (+)
63 2:48:00 / 2:47:53 Klain Cristian M (+)
64 2:48:01 / 2:47:50 Giunti Julian Martin M (+)
65 2:48:06 / 2:47:35 Paiva Ferraz Pereira Joao Pedro M (+)
66 2:48:13 / 2:48:05 Dos Santos Ary Carlos Dias M (+)
67 2:48:39 / 2:48:28 Hurtado Eduardo Jose M (+)
68 2:48:51 / 2:48:38 Primofrutto Lucas Martin M (+)
69 2:49:14 / 2:48:20 Suarez Damian M (+)
70 2:49:25 / 2:49:17 Speldenbrink Rowdy M (+)
71 2:49:28 / 2:49:17 Guilleron Federico M (+)
72 2:49:55 / 2:49:54 Barrios Olga Adela Esth (ARG) F (+)
73 2:50:07 / 2:50:00 Cotron Victor Alfredo M (+)
74 2:50:16 / 2:50:06 Falcone Da M (+)
75 2:50:28 / 2:50:25 Romero Rosa Angelica (PER) F (+)
76 2:50:31 / 2:50:25 Perez Marcelino Sergi M (+)
77 2:50:34 / 2:50:25 Varde Francisco M (+)
78 2:50:42 / 2:50:28 Silva Ernesto M (+)
79 2:50:56 / 2:50:46 Larenas Juan Pablo M (+)
80 2:51:02 / 2:50:56 Carmody Mario Oscar M (+)
81 2:51:09 / 2:50:13 Magallane Jonathan M (+)
82 2:51:13 / 2:51:02 Visconti Rodrigo M (+)
83 2:51:16 / 2:51:10 Mendez Emir M (+)
84 2:51:33 / 2:51:23 Jalile Gabriel M (+)
85 2:51:36 / 2:51:24 Betnaza Juan M (+)
86 2:51:46 / 2:51:31 Alemandi Leonardo Gustav M (+)
87 2:51:47 / 2:51:38 Pinheiro Luis M (+)
88 2:51:51 / 2:51:30 Gonzalez Diego Fernando M (+)
89 2:52:01 / 2:51:53 Caceres Sandro M (+)
90 2:52:04 / 2:51:55 Barchoqui Daniel M (+)
91 2:52:06 / 2:51:49 Parini Octavio Ezequie M (+)
92 2:52:20 / 2:52:13 Casa Augusto M (+)
93 2:52:23 / 2:52:03 Puga Denis M (+)
94 2:52:57 / 2:52:48 Ostryniuk Pablo Ezequiel M (+)
95 2:52:58 / 2:52:46 Giancarelli Alejandr Alejandro M (+)
96 2:53:07 / 2:52:49 Alberico Hugo M (+)
97 2:53:22 / 2:53:11 Agripino Da Silva Luis M (+)
98 2:53:23 / 2:53:11 Lima Thiago M (+)
99 2:53:27 / 2:53:27 Doval Gabriel M (+)
100 2:53:32 / 2:53:17 Rosenblat Jonathan M (+)
101 2:53:35 / 2:53:30 Kenny Bernardo M (+)
102 2:53:35 / 2:53:30 Robson Juan Martin M (+)
103 2:53:40 / 2:53:21 Kuzmann Bruno M (+)
104 2:53:43 / 2:53:42 Curilaf Fabio Miguel M (+)
105 2:53:44 / 2:53:34 Sadowiak Nicolas M (+)
106 2:53:52 / 2:53:46 Mulet Eduardo Damian M (+)
107 2:53:57 / 2:53:44 Vallejos Leandro M (+)
108 2:54:01 / 2:53:45 Viana Caio M (+)
109 2:54:04 / 2:54:02 Fuentealba Karina Natalia (ARG) F (+)
110 2:54:21 / 2:54:07 Matta MacHado Junior Marcio M (+)
111 2:54:22 / 2:54:07 Leandro Roger M (+)
112 2:54:35 / 2:54:28 Saffigna Matias M (+)
113 2:54:39 / 2:54:27 Prado Volnei M (+)
114 2:54:43 / 2:54:22 Pintos Marcelo Raul M (+)
115 2:54:43 / 2:54:26 Lopes Alexandre M (+)
116 2:54:44 / 2:54:36 Baron Dantaz Gonzalo Javier M (+)
117 2:54:45 / 2:54:38 Serpone Daniel Hernan M (+)
118 2:54:47 / 2:54:42 Daddesio Matias M (+)
119 2:54:51 / 2:54:38 Benitez Roberto Angel M (+)
120 2:54:53 / 2:54:43 Romero Sebastian Gonza M (+)
121 2:55:06 / 2:55:00 Diaz Guillermo M (+)
122 2:55:11 / 2:55:03 Leguiza Mariano M (+)
123 2:55:14 / 2:55:02 Soares De Souza George Henrique M (+)
124 2:55:17 / 2:55:07 Olivera Lucas Diego M (+)
125 2:55:19 / 2:55:08 Sobral Fernando M (+)
126 2:55:21 / 2:55:08 Vicente Hernan M (+)
127 2:55:24 / 2:54:33 Cortes Pablo Fernando M (+)
128 2:55:50 / 2:55:43 Quintana Hernan M (+)
129 2:55:55 / 2:55:35 Alves Juan Jose M (+)
130 2:55:55 / 2:55:42 Siqueira Rangel M (+)
131 2:56:05 / 2:55:45 Barabino Jorge Martin M (+)
132 2:56:25 / 2:56:15 Medina Silvestre M (+)
133 2:56:37 / 2:56:19 Bornancini Alexis M (+)
134 2:56:47 / 2:56:29 Mazzarelli Andres M (+)
135 2:56:51 / 2:56:33 MacHuca Vitor M (+)
136 2:56:53 / 2:56:32 Prado Paulo M (+)
137 2:56:54 / 2:56:37 Condezo Laborde Nicolas Leonard M (+)
138 2:56:55 / 2:56:49 Romero Mariano M (+)
139 2:57:00 / 2:56:42 Soldado Dayvison De Oli M (+)
140 2:57:02 / 2:56:54 Quiros Alfredo M (+)
141 2:57:04 / 2:56:51 Cataldo Hugo M (+)
142 2:57:05 / 2:56:53 Paitas Ivan M (+)
143 2:57:05 / 2:56:36 Revello Juan Pablo M (+)
144 2:57:14 / 2:57:06 Gongora Matias Sebastia M (+)
145 2:57:24 / 2:57:05 De Moura Marcelo M (+)
146 2:57:25 / 2:56:48 Hiza Guillermo Ariel M (+)
147 2:57:26 / 2:57:12 Gouveia Paulo Henrique M (+)
148 2:57:30 / 2:57:20 Fausto Francisco Rober M (+)
149 2:57:37 / 2:57:26 Boero Sebastian M (+)
150 2:57:43 / 2:57:35 Pietrelli Osvaldo Ariel M (+)
151 2:57:44 / 2:57:33 Costa Jose Maria M (+)
152 2:57:53 / 2:57:40 Garcia Sarti Ezequiel M (+)
153 2:58:07 / 2:57:47 Berdezagar Rodrigo M (+)
154 2:58:08 / 2:57:57 Marino Marcos M (+)
155 2:58:13 / 2:57:43 Villenas Edwin Ivan M (+)
156 2:58:22 / 2:57:50 Canosa Sergio M (+)
157 2:58:23 / 2:58:21 Pecorari Sergio M (+)
158 2:58:23 / 2:58:13 Orlandi Pablo M (+)
159 2:58:25 / 2:58:14 Bravo Guillermo M (+)
160 2:58:26 / 2:57:24 Moreti Leonardo M (+)
161 2:58:28 / 2:58:16 Gorriz Leandro M (+)
162 2:58:32 / 2:58:14 Moral Jorge Hugo M (+)
163 2:58:37 / 2:58:22 Fittipaldi Lucas M (+)
164 2:58:39 / 2:58:31 Moix Alcides Manuel M (+)
165 2:58:40 / 2:58:29 Tortoro Theodoro M (+)
166 2:58:41 / 2:58:32 Verhulst Campos Walter M (+)
167 2:58:44 / 2:58:30 Nogueira Daniel M (+)
168 2:58:47 / 2:58:31 Alzugaray Gustavo Enrique M (+)
169 2:58:59 / 2:58:51 Izidro Michell M (+)
170 2:59:12 / 2:59:05 Ferrandino Pablo M (+)
171 2:59:18 / 2:59:16 Galvez Virginia (ARG) F (+)
172 2:59:20 / 2:59:05 Da Silva De Oliveira Luiz Augusto M (+)
173 2:59:24 / 2:59:15 Costa Bruno Gaston M (+)
174 2:59:25 / 2:59:12 Zitta Mauro M (+)
175 2:59:33 / 2:58:48 Azevedo Rafael Eduardo M (+)
176 2:59:45 / 2:59:28 Zelaya Daniel Alejandr M (+)
177 2:59:46 / 2:57:36 Puliti Emanuel Damian M (+)
178 2:59:47 / 2:59:30 Sayago Elisson M (+)
179 2:59:55 / 2:59:43 Retamoso Lucio M (+)
180 2:59:56 / 2:59:16 Ismailow Duarte Aristeu M (+)
181 2:59:57 / 2:59:42 Espetxe Pedro M (+)
182 2:59:57 / 2:59:45 Jeronimo Maximiliano M (+)
183 3:00:05 / 2:59:51 Neto Antonio Neto Al M (+)
184 3:00:10 / 2:59:56 Dimatteo Juan Pablo M (+)
185 3:00:21 / 2:59:49 Maidana Francisco M (+)
186 3:00:28 / 3:00:15 Najera Guillermo M (+)
187 3:00:29 / 3:00:18 Chavez Martin M (+)
188 3:00:31 / 2:59:59 Lucero Juan Alberto M (+)
189 3:00:32 / 3:00:24 Cabrera Joaquin Pablo M (+)
190 3:00:35 / 3:00:22 Tavares Junior Fernando M (+)
191 3:00:35 / 2:59:57 Vera Romeo Ulises M (+)
192 3:00:37 / 2:59:56 Castro Fernando M (+)
193 3:00:37 / 3:00:21 Pedelhes Edison Luiz Ben M (+)
194 3:00:38 / 3:00:04 Galvan Raul Enrique M (+)
195 3:00:41 / 3:00:28 Arrieta Gustavo Ariel M (+)
196 3:00:42 / 3:00:34 Allende Damian M (+)
197 3:00:45 / 3:00:35 Valenzuela Pablo M (+)
198 3:00:49 / 3:00:28 Tassarolo Daniel M (+)
199 3:00:51 / 2:59:57 Fernandez Sergio M (+)
200 3:00:53 / 3:00:24 Ferreira Cristian M (+)
201 3:00:58 / 3:00:42 Rivadero David Emanuel M (+)
202 3:01:00 / 3:00:44 Barros Fernando M (+)
203 3:01:02 / 3:00:51 Ramirez Andres Felipe M (+)
204 3:01:06 / 3:00:52 Di Fonzo Gerardo Adrian M (+)
205 3:01:07 / 3:00:52 Guzman Alvaro M (+)
206 3:01:13 / 3:00:31 Scarano Diego M (+)
207 3:01:29 / 3:00:57 Larry Cesar Augusto M (+)
208 3:01:31 / 3:01:24 Moro Martin Miguel M (+)
209 3:01:44 / 3:01:33 Vercellana Tomas M (+)
210 3:01:50 / 3:01:38 Cabrera Cristian M (+)
211 3:01:58 / 3:00:19 Bustos Emiliano M (+)
212 3:01:59 / 2:59:38 Aguilera Isaias Ricardo M (+)
213 3:02:02 / 3:01:49 Matocq Gabriel Osvaldo M (+)
214 3:02:06 / 3:01:35 Novelli Pedro M (+)
215 3:02:08 / 3:01:56 Aresa Leandro M (+)
216 3:02:10 / 3:01:48 Anzellotta Adrian M (+)
217 3:02:11 / 3:02:09 Lopez Carlos Rodolfo M (+)
218 3:02:17 / 3:02:01 Hambo Andres Ricardo M (+)
219 3:02:20 / 3:01:56 Petrarca Santiago M (+)
220 3:02:28 / 3:02:15 Rocha Mateus Alves Da M (+)
221 3:02:31 / 3:02:21 Gonzalez Mauro Rodrigo M (+)
222 3:02:31 / 3:02:18 Isaac Carlos Felipe M (+)
223 3:02:39 / 3:02:15 Sansolini Ignacio M (+)
224 3:02:42 / 3:02:35 Nastri Christian Ariel M (+)
225 3:02:51 / 3:01:37 Forlenza Leonardo Gaston M (+)
226 3:02:59 / 3:02:56 Romero Fatima Viviana (PAR) F (+)
227 3:03:07 / 3:02:54 Ligabue F. Da Silva Luiz Henrique M (+)
228 3:03:13 / 3:02:57 Ortiz Luis Fernando M (+)
229 3:03:13 / 3:02:38 Assis Claudio M (+)
230 3:03:19 / 3:03:13 Guzman Patricia (PAR) F (+)
231 3:03:21 / 3:03:09 Abelaira Mario M (+)
232 3:03:29 / 3:01:31 Ruiz Fuentes Fernando Nahuel M (+)
233 3:03:45 / 3:03:00 Barrios Daporta Carlos Daniel M (+)
234 3:03:46 / 3:03:15 Aristi Hernan M (+)
235 3:03:48 / 3:03:31 Lopez Cabanas Juan Jose M (+)
236 3:03:52 / 3:03:36 Sant Anna Carvalho L Pedro M (+)
237 3:03:53 / 3:01:42 Gonzalez Emiliano M (+)
238 3:03:53 / 3:03:23 Torres Gustavo M (+)
239 3:03:54 / 3:03:43 Santos Nailton De Oliv M (+)
240 3:03:57 / 3:03:25 Vinuesa Fabio Mauricio M (+)
241 3:04:03 / 3:03:52 Cortes Alfredo Rafael M (+)
242 3:04:08 / 3:04:01 Masseo Damian Norberto M (+)
243 3:04:08 / 3:04:00 Diaz David M (+)
244 3:04:09 / 3:04:03 Miranda Alberto M (+)
245 3:04:11 / 3:03:23 Martinez German M (+)
246 3:04:16 / 3:03:55 Parisi Mariano M (+)
247 3:04:28 / 3:04:23 Napoli Gerardo M (+)
248 3:04:30 / 3:04:19 Mundt Santiago Andres M (+)
249 3:04:40 / 3:03:56 Hernandes Delgado Ju Silvio M (+)
250 3:04:58 / 3:04:06 Muller Gustavo M (+)
251 3:05:00 / 3:04:50 Pose Luciano Gabriel M (+)
252 3:05:01 / 3:04:44 Diaz Gaston M (+)
253 3:05:02 / 3:04:52 Biazzi Andre M (+)
254 3:05:02 / 3:03:48 Olivera Diego Eliseo M (+)
255 3:05:04 / 3:04:54 Da Silva Barros Antonia Keyla (BRA) F (+)
256 3:05:04 / 3:04:53 De Jesus Santos Dort Edneusa (BRA) F (+)
257 3:05:05 / 3:04:43 Ruiz Sergio Gustavo M (+)
258 3:05:12 / 3:05:03 Campana Jose M (+)
259 3:05:13 / 3:04:58 Marcos Lucas Hernan M (+)
260 3:05:42 / 3:05:29 Rodriguez Julio Cesar M (+)
261 3:05:43 / 3:05:29 Barroso Bernardo M (+)
262 3:05:49 / 3:05:20 Godoy Glaucio M (+)
263 3:05:50 / 3:05:34 Emanuel Barreiro Sommar M (+)
264 3:05:54 / 3:05:36 Alon Eran M (+)
265 3:05:56 / 3:05:45 Chianalino Ignacio M (+)
266 3:05:57 / 3:05:46 Romanov Javier Nicolas M (+)
267 3:06:00 / 3:05:41 Delia Juan Pablo M (+)
268 3:06:00 / 3:05:53 Herrera Alfredo Florent M (+)
269 3:06:02 / 3:05:54 Paz Zalazar Rene M (+)
270 3:06:03 / 3:04:08 Abrate Alejo Joaquin M (+)
271 3:06:06 / 3:05:56 Przytula Fernando Sergio M (+)
272 3:06:06 / 3:05:56 Cano Mariana (ARG) F (+)
273 3:06:13 / 3:05:57 Mercado Pablo Antonio M (+)
274 3:06:20 / 3:06:18 Portillo Nelly F (+)
275 3:06:20 / 3:05:56 Lezcano Mauro Dario M (+)
276 3:06:30 / 3:05:00 Manso Juan Antonio M (+)
277 3:06:32 / 3:06:05 Matamala Roa Hardy M (+)
278 3:06:35 / 3:05:36 Dalpizolo Cristiano Anton M (+)
279 3:06:35 / 3:06:26 Da Silva Francisco Carlo M (+)
280 3:06:37 / 3:06:21 Nunes De Andrade Erivaldo M (+)
281 3:06:38 / 3:06:19 Petrucci Juan Martin M (+)
282 3:06:41 / 3:05:42 Freitas De Oliveira Alex M (+)
283 3:06:44 / 3:05:45 Wu Yu M (+)
284 3:06:52 / 3:06:42 Fernandez Sebastian M (+)
285 3:06:55 / 3:06:42 Concilio Jorge M (+)
286 3:06:57 / 3:06:49 Aparecido De Souza Natal M (+)
287 3:07:03 / 3:06:52 Coria Grigoni Esteban Martin M (+)
288 3:07:16 / 3:07:14 Oliveira Peres Lucelia F (+)
289 3:07:29 / 3:07:03 Gaia Francisco M (+)
290 3:07:38 / 3:06:23 Sanchez Cuero Jhon M (+)
291 3:07:47 / 3:07:12 Mathias Marcio Mathias M (+)
292 3:07:47 / 3:07:11 Asteasuain Mariano M (+)
293 3:07:51 / 3:07:44 Gonzalez Juan Sebastian M (+)
294 3:07:52 / 3:07:20 Brolezi Fabio M (+)
295 3:07:53 / 3:07:46 Carballo Marcelo Fabian M (+)
296 3:07:56 / 3:07:47 Lopez Juan Pablo M (+)
297 3:07:59 / 3:07:49 Jumilla Miguel M (+)
298 3:07:59 / 3:07:41 Vons Sebastian M (+)
299 3:08:00 / 3:07:22 Maluh Alejandro Gabri M (+)
300 3:08:14 / 3:08:01 Lebrero Mariano Eduardo M (+)
301 3:08:18 / 3:08:09 Lopez Jonathan Ezequi M (+)
302 3:08:21 / 3:08:13 Perez Chagaray Sebastian M (+)
303 3:08:23 / 3:07:30 Tellechea Alejandro M (+)
304 3:08:27 / 3:07:49 Coulaud Vincent M (+)
305 3:08:29 / 3:08:22 Szuchet Federico M (+)
306 3:08:29 / 3:08:13 Trunzo Guillermo Danie M (+)
307 3:08:30 / 3:07:46 Menezes De Melo Filh Wilson M (+)
308 3:08:32 / 3:07:12 Jeha Isadora F (+)
309 3:08:38 / 3:07:18 Plaza Agustin M (+)
310 3:08:45 / 3:08:28 Carmona Dun Yamil Ignacio M (+)
311 3:08:47 / 3:08:28 Tarabini Leandro M (+)
312 3:08:56 / 3:08:24 Muia Enzo M (+)
313 3:08:59 / 3:08:13 Romero Jara Claudio M (+)
314 3:09:07 / 3:08:22 Perez Sebastian M (+)
315 3:09:14 / 3:08:28 Orellana Cordova Francisco M (+)
316 3:09:23 / 3:08:04 Gomez Adrian M (+)
317 3:09:26 / 3:09:08 Cistolo Lopes Guilherme M (+)
318 3:09:31 / 3:09:19 Rodriguez Walter Damian M (+)
319 3:09:32 / 3:08:20 De Antoni Fabricio M (+)
320 3:09:33 / 3:09:08 Alsina Hernan M (+)
321 3:09:33 / 3:06:46 Campos Luis M (+)
322 3:09:36 / 3:09:03 Garcia Fernando Ariel M (+)
323 3:09:38 / 3:08:49 Crespo Damian Ariel M (+)
324 3:09:43 / 3:09:18 Mayer Marcelo M (+)
325 3:09:44 / 3:09:31 Petran Marcelo Gabriel M (+)
326 3:09:50 / 3:09:32 Rosa Robson M (+)
327 3:09:50 / 3:09:22 MacHado Marcelo M (+)
328 3:09:50 / 3:09:18 Cantuaria Tafarel Elias M (+)
329 3:09:54 / 3:08:32 Cuenca Nicolas M (+)
330 3:09:56 / 3:09:42 Delgado Jose M (+)
331 3:09:58 / 3:09:26 Bossio Maximiliano M (+)
332 3:10:00 / 3:09:26 De Lima Victor M (+)
333 3:10:01 / 3:09:21 Leandro Ezequiel Taccone M (+)
334 3:10:07 / 3:09:45 Sosa Gallardo Maximiliano Jos M (+)
335 3:10:07 / 3:09:53 Garcia Norberto M (+)
336 3:10:09 / 3:09:55 Perotti Marcelo M (+)
337 3:10:10 / 3:09:18 Takarada Fabio M (+)
338 3:10:11 / 3:08:29 Marcelino Pedro Antonio M (+)
339 3:10:17 / 3:09:16 Cocito Carlos Agustin M (+)
340 3:10:20 / 3:10:12 Ferrari Leonardo Daniel M (+)
341 3:10:25 / 3:10:07 Martins Arthur Nelson M (+)
342 3:10:25 / 3:10:07 Montero Ariel Omar M (+)
343 3:10:26 / 3:10:11 Brochero Miguel Antonio M (+)
344 3:10:31 / 3:10:18 Tombolato Javier Eugenio M (+)
345 3:10:31 / 3:10:14 Abba Fabio Ceferino M (+)
346 3:10:34 / 3:10:08 Sousa Barros Harilson M (+)
347 3:10:37 / 3:09:43 Paschoal Pereira Renato M (+)
348 3:10:43 / 3:10:41 Silva Maria Silvania F (+)
349 3:10:43 / 3:08:20 Zeballos Juan Pablo M (+)
350 3:10:43 / 3:10:07 Liendo Juana F (+)
351 3:10:47 / 3:10:34 Lemos Osvaldo M (+)
352 3:10:49 / 3:09:56 Tagle Ruiz-Tagle Francisco M (+)
353 3:10:51 / 3:10:40 Dettwiler Andreas M (+)
354 3:10:53 / 3:09:53 Pinheiro De Camargo Arnaldo M (+)
355 3:10:54 / 3:10:37 Saavedra Javier Emanuel M (+)
356 3:10:56 / 3:10:42 Lima Antonioli Alex M (+)
357 3:10:58 / 3:10:31 Izcovich Daniel M (+)
358 3:11:02 / 3:10:47 Garcia Mariano Alberto M (+)
359 3:11:04 / 3:10:47 Molina Daniel M (+)
360 3:11:04 / 3:06:31 De Sousa Cunha Claudennes M (+)
361 3:11:09 / 3:10:19 Baeza Isaac M (+)
362 3:11:09 / 3:10:51 Rios Francisco Javie M (+)
363 3:11:10 / 3:11:01 Lencina Juan Manuel M (+)
364 3:11:13 / 3:10:48 Thobo Jens M (+)
365 3:11:14 / 3:09:11 Ross Gregory M (+)
366 3:11:15 / 3:10:56 Valverde Nicolas M (+)
367 3:11:19 / 3:11:11 Lorange Claudio M (+)
368 3:11:22 / 3:11:14 Moreyra Hernan M (+)
369 3:11:24 / 3:11:10 Amherdt Juan Marcelo M (+)
370 3:11:29 / 3:09:17 Banos Villagaray Gonzalo M (+)
371 3:11:34 / 3:11:25 Giordano Antonio M (+)
372 3:11:36 / 3:10:31 Benitez Luis M (+)
373 3:11:36 / 3:10:53 Riba Jose Ribamar Fe M (+)
374 3:11:41 / 3:11:33 Belge Emilio M (+)
375 3:11:43 / 3:10:15 Castro Marco Tulio C C M (+)
376 3:11:43 / 3:11:33 Nikodem Eugenia F (+)
377 3:11:44 / 3:11:25 Moglievsky Leonel M (+)
378 3:11:45 / 3:11:05 Ugarte Cristian M (+)
379 3:11:46 / 3:11:05 Velis Juan Pablo M (+)
380 3:11:48 / 3:11:11 Balinotti Marianela F (+)
381 3:11:52 / 3:11:42 Benet Pablo Fernando M (+)
382 3:11:53 / 3:11:35 Landgrebe Carlos Enrique M (+)
383 3:12:04 / 3:11:50 Eluchans Diego M (+)
384 3:12:07 / 3:11:00 Urquiza Martin Ignacio M (+)
385 3:12:13 / 3:11:18 Pila Paolo Agustin M (+)
386 3:12:19 / 3:11:22 Rosselli Di Rennzo Julio M (+)
387 3:12:20 / 3:11:22 Iriart Luis Claudio M (+)
388 3:12:21 / 3:11:48 JoAo Victor Souza JoAo Victor Fer M (+)
389 3:12:22 / 3:11:28 Comellas Pablo M (+)
390 3:12:24 / 3:07:42 Castillo Jose Dario M (+)
391 3:12:31 / 3:11:53 Rodriguez Joaquin M (+)
392 3:12:33 / 3:12:02 Blanco Adrian Ismael M (+)
393 3:12:33 / 3:12:02 Aldaz Miguel Angel M (+)
394 3:12:33 / 3:12:03 San Martino Claudio M (+)
395 3:12:34 / 3:12:18 Rivara Rodolfo M (+)
396 3:12:34 / 3:12:17 Salinas Adrian Lujan M (+)
397 3:12:42 / 3:12:20 Rovea Federico M (+)
398 3:12:44 / 3:11:58 Pereira Henrique M (+)
399 3:12:47 / 3:12:27 Dias Carlos M (+)
400 3:12:49 / 3:12:29 Rivillas Alvarez Ruben Dario M (+)
401 3:12:53 / 3:11:45 Artola Manuel M (+)
402 3:13:01 / 3:11:52 Judge Timothy John M (+)
403 3:13:07 / 3:12:15 Castro Maria Clara F (+)
404 3:13:08 / 3:11:42 Attwell David M (+)
405 3:13:23 / 3:11:56 Rocha Alexandre M (+)
406 3:13:24 / 3:12:56 Carballo Santiago M (+)
407 3:13:31 / 3:12:19 Dubois Marcos M (+)
408 3:13:32 / 3:13:20 Kumagai Akira Romeu M (+)
409 3:13:33 / 3:13:14 Ruiz Grane Gaston M (+)
410 3:13:35 / 3:12:41 Kitayama Andre M (+)
411 3:13:39 / 3:13:27 Oliveira Costa Marcio M (+)
412 3:13:42 / 3:13:36 Okazaki Jiro M (+)
413 3:13:43 / 3:12:33 Amica Agustin Felix M (+)
414 3:13:44 / 3:13:27 Takahashi Marco M (+)
415 3:13:44 / 3:13:34 Espinosa Francisco M (+)
416 3:13:45 / 3:12:50 De Pergola Sebastian Jose M (+)
417 3:13:50 / 3:11:31 Carignano Franco M (+)
418 3:13:51 / 3:12:56 De Souza Martins Diego M (+)
419 3:13:54 / 3:12:50 Fuentes Ignacio Javier M (+)
420 3:13:59 / 3:13:38 Kainz Marcelo M (+)
421 3:14:02 / 3:13:16 Garcia Alex M (+)
422 3:14:05 / 3:13:49 Dominguez Gonzalo M (+)
423 3:14:07 / 3:13:48 De Lima Nivaldo Teixeir M (+)
424 3:14:09 / 3:13:55 Goyhenespe Julio Hipolito M (+)
425 3:14:14 / 3:14:07 Espinoza Walter Adrian M (+)
426 3:14:15 / 3:13:53 Sarasa Facundo Daniel M (+)
427 3:14:15 / 3:14:07 Brime Leonel M (+)
428 3:14:15 / 3:13:42 Carrera Agustina F (+)
429 3:14:15 / 3:13:15 Tejerina Maria Elena F (+)
430 3:14:28 / 3:14:26 Cabrera Jorge M (+)
431 3:14:31 / 3:13:37 Nascimento Israel M (+)
432 3:14:31 / 3:13:59 Hinojal Hernan M (+)
433 3:14:31 / 3:13:54 Nikolaus Kraus M (+)
434 3:14:33 / 3:14:04 Latorre Lucas M (+)
435 3:14:33 / 3:14:19 Irazabal Nelson M (+)
436 3:14:33 / 3:13:59 Granados Juan Enrique M (+)
437 3:14:35 / 3:13:48 Huarte Juan Pablo M (+)
438 3:14:36 / 3:14:28 Duran Hector M (+)
439 3:14:43 / 3:14:17 Silva Washington Luiz M (+)
440 3:14:44 / 3:14:35 Farias Dos Santos Joao Roberto M (+)
441 3:14:45 / 3:14:39 Pina Pina Esteban Osvaldo M (+)
442 3:14:48 / 3:14:38 Retamal Matias Jorge M (+)
443 3:14:48 / 3:14:25 QuintAo Roberto M (+)
444 3:14:49 / 3:14:38 Ferreyra Cristian Albert M (+)
445 3:14:50 / 3:13:50 Nieto Ramiro Augusto M (+)
446 3:14:59 / 3:14:38 Panoff Mauricio M (+)
447 3:14:59 / 3:13:46 Panozo Bedoya Rafael M (+)
448 3:15:00 / 3:14:36 MacEdo Daniel M (+)
449 3:15:01 / 3:14:08 Ishida Rodrigo M (+)
450 3:15:01 / 3:13:52 Reck Patricio M (+)
451 3:15:01 / 3:13:40 Casanova Martin M (+)
452 3:15:01 / 3:14:35 Ruiz Garcia Rafael M (+)
453 3:15:08 / 3:14:59 Tosto Gabriel Alejand M (+)
454 3:15:08 / 3:14:27 Couselo Gaston M (+)
455 3:15:10 / 3:14:11 Sanchez Karim M (+)
456 3:15:12 / 3:14:53 Cutini Horacio Oscar M (+)
457 3:15:14 / 3:15:04 Gallardo Aravena Carlos M (+)
458 3:15:17 / 3:15:01 Narciso Rubio Daniel M (+)
459 3:15:19 / 3:13:09 Ferreyra Caceres Federico Jose M (+)
460 3:15:24 / 3:15:03 Servente Fernando M (+)
461 3:15:25 / 3:15:06 Ballesteros Sandro Daniel M (+)
462 3:15:26 / 3:15:17 Ertl Rainer M (+)
463 3:15:27 / 3:15:12 Zegarra Rojas De San Marilu Octavia F (+)
464 3:15:29 / 3:14:50 Bonora Guillermo M (+)
465 3:15:31 / 3:14:53 Hidalgo Victoria F (+)
466 3:15:31 / 3:14:54 Debus Gabriel M (+)
467 3:15:36 / 3:14:05 Baffico Carlos M (+)
468 3:15:39 / 3:15:32 Poussard Santiago Cristi M (+)
469 3:15:39 / 3:14:32 Spinelli Pablo M (+)
470 3:15:41 / 3:15:27 Balvuena Matias M (+)
471 3:15:41 / 3:15:33 Varas Adrian Enrique M (+)
472 3:15:42 / 3:15:25 Flematti Victor M (+)
473 3:15:43 / 3:15:28 De La Lama Ruben M (+)
474 3:15:43 / 3:15:19 Mourglia Leonardo M (+)
475 3:15:44 / 3:15:23 Galiano Damian M (+)
476 3:15:45 / 3:15:04 Gutierrez Aldo M (+)
477 3:15:50 / 3:15:35 BrandAo De Morais Cu Marcelo M (+)
478 3:16:01 / 3:15:34 Accioly Gustavo M (+)
479 3:16:01 / 3:15:21 Andrade Thiago M (+)
480 3:16:05 / 3:15:05 Torres Correa Jackson M (+)
481 3:16:17 / 3:15:54 Ulloa Hugo Norberto M (+)
482 3:16:20 / 3:15:43 Vera Miguel Alfredo M (+)
483 3:16:21 / 3:15:16 Merlo ?ngelo Vicente M (+)
484 3:16:22 / 3:15:51 Reppucci Juan Jose M (+)
485 3:16:23 / 3:15:17 Rosa Fagundes Nelson Jurandi M (+)
486 3:16:27 / 3:15:29 Faviano Julian M (+)
487 3:16:27 / 3:16:19 Juarez Ricardo Fransci M (+)
488 3:16:28 / 3:15:26 Luciano Adrian Mario M (+)
489 3:16:28 / 3:16:18 Paroli Leandro M (+)
490 3:16:29 / 3:16:04 Bellusci Daniel Adrian M (+)
491 3:16:31 / 3:15:57 Muller Oliveira Gustavo M (+)
492 3:16:32 / 3:16:01 Rodriguez Jose Luis M (+)
493 3:16:34 / 3:16:18 Sandoval Melo Cristian M (+)
494 3:16:36 / 3:15:55 Jorge Leandro M (+)
495 3:16:38 / 3:15:38 Larry Jorge Alberto M (+)
496 3:16:44 / 3:16:31 Aquino Lopez Fernando Javier M (+)
497 3:16:46 / 3:16:11 Manriquez Nunez Alexander Max M (+)
498 3:16:51 / 3:16:35 Imbruniz Allan Robson Im M (+)
499 3:17:12 / 3:16:20 De Freitas Wilson M (+)
500 3:17:12 / 3:16:28 Alves Jose M (+)
501 3:17:17 / 3:16:45 Tulli Roberto M (+)
502 3:17:19 / 3:16:48 Reynal Jorge M (+)
503 3:17:20 / 3:16:47 Monteiro Ferreira Regis M (+)
504 3:17:21 / 3:17:04 Hasegawa Eric M (+)
505 3:17:23 / 3:16:35 Rivera Sergio Daniel M (+)
506 3:17:23 / 3:16:32 Rollan Hector Rafael M (+)
507 3:17:26 / 3:16:51 Pereira Duarte Matias M (+)
508 3:17:26 / 3:16:32 Ibarlucia Javier Ignacio M (+)
509 3:17:27 / 3:15:58 Peri Marivaldo Barro M (+)
510 3:17:28 / 3:17:04 Ibarra Esteban Jesus M (+)
511 3:17:33 / 3:16:14 Farias Alfredo M (+)
512 3:17:34 / 3:15:16 Miranda Nestor Alberto M (+)
513 3:17:35 / 3:17:10 Villota Jesus M (+)
514 3:17:40 / 3:16:03 Westberg Lucas M (+)
515 3:17:40 / 3:16:50 Zuleta Jader M (+)
516 3:17:41 / 3:17:08 Nicholas Paul M (+)
517 3:17:51 / 3:17:20 Gordillo Aldo Rafael M (+)
518 3:17:56 / 3:17:37 Rozenbaum Federico M (+)
519 3:18:06 / 3:17:23 Baldoma Andres M (+)
520 3:18:12 / 3:17:17 Vieira Andre M (+)
521 3:18:23 / 3:17:59 Garnica Christian Ariel M (+)
522 3:18:26 / 3:17:17 Hurtado Martin M (+)
523 3:18:26 / 3:18:12 Goncalves Da Silva Isaias M (+)
524 3:18:27 / 3:17:54 Mc Coubrey Leandro M (+)
525 3:18:28 / 3:18:15 Cuesta Guillermo M (+)
526 3:18:37 / 3:18:14 Rodriguez Julio Cesar Fab M (+)
527 3:18:39 / 3:18:20 Zaccara Eduardo M (+)
528 3:18:42 / 3:18:20 Siqueira Alessandra F (+)
529 3:18:43 / 3:17:49 Glibbery Diego M (+)
530 3:18:46 / 3:17:29 Bruno German Ariel M (+)
531 3:18:46 / 3:18:37 Godoy Leonardo Salvad M (+)
532 3:18:46 / 3:16:49 Carrascosa Ariel M (+)
533 3:18:48 / 3:18:25 Montanhei Aldemir M (+)
534 3:19:02 / 3:18:47 Reymer Gregory M (+)
535 3:19:02 / 3:18:22 Cerrone Candela F (+)
536 3:19:02 / 3:18:02 Valente Fabio M (+)
537 3:19:03 / 3:18:31 Achem Octavio M (+)
538 3:19:03 / 3:18:24 Lucero Carlos Sebastia M (+)
539 3:19:03 / 3:18:53 Demichelli Diego Hernan M (+)
540 3:19:05 / 3:17:27 Fialho Flavio M (+)
541 3:19:09 / 3:16:30 Alvarenga Ricardo M (+)
542 3:19:11 / 3:16:55 Zunino Ignacio M (+)
543 3:19:11 / 3:19:04 Prado Jorge Luis M (+)
544 3:19:13 / 3:18:47 Ramirez Maximiliano Jos M (+)
545 3:19:15 / 3:17:45 Carrizo Hector Sebastia M (+)
546 3:19:17 / 3:18:48 Dotti Pablo M (+)
547 3:19:19 / 3:18:07 Sudo Marcio M (+)
548 3:19:28 / 3:19:20 Moro Alessandro M (+)
549 3:19:28 / 3:19:18 Delettieres Esteban M (+)
550 3:19:31 / 3:19:09 Caballero Jonatan Daniel M (+)
551 3:19:31 / 3:19:16 Ponce Domingo M (+)
552 3:19:32 / 3:18:58 Bartra Renzo M (+)
553 3:19:36 / 3:19:06 Cortes Simon Carlos M (+)
554 3:19:37 / 3:19:07 Czubinski Mauricio M (+)
555 3:19:39 / 3:19:15 Galeano Facundo M (+)
556 3:19:40 / 3:18:50 Nobriga Da Silva Jun JordAo M (+)
557 3:19:44 / 3:19:19 Morales Luciano Damian M (+)
558 3:19:46 / 3:19:25 Fellippa Marques Luiza F (+)
559 3:19:54 / 3:19:11 Belardo Matias Rafael M (+)
560 3:19:56 / 3:19:45 Barros Carrion Manuel Rodrigo M (+)
561 3:19:57 / 3:19:08 Valdes Sebastain M (+)
562 3:20:03 / 3:18:55 Fleitas Walter M (+)
563 3:20:03 / 3:19:44 Guilenia Sergio M (+)
564 3:20:11 / 3:19:51 Junior Marcos Jurado J M (+)
565 3:20:12 / 3:19:56 Varela Claudio Adrian M (+)
566 3:20:12 / 3:19:59 Pereira Da Silva Jose Alvaro M (+)
567 3:20:13 / 3:19:54 Ruppel Edgardo Guiller M (+)
568 3:20:24 / 3:19:46 Palau Quintana Andres Ramon M (+)
569 3:20:25 / 3:19:55 Martinez Monica F (+)
570 3:20:26 / 3:19:55 Civile Hernan M (+)
571 3:20:29 / 3:19:57 Soares De Oliveira F Hudson Machado M (+)
572 3:20:30 / 3:20:05 Paz Juan Jose M (+)
573 3:20:30 / 3:20:24 Diaz Lacava Pablo Ramiro M (+)
574 3:20:31 / 3:19:30 Sonego Junior Orlando M (+)
575 3:20:32 / 3:19:39 Favetto Luciano Andres M (+)
576 3:20:34 / 3:20:13 Morsa Roberto M (+)
577 3:20:37 / 3:20:07 Skalany Juan Pablo M (+)
578 3:20:38 / 3:19:30 Duarte Omar Ezequiel M (+)
579 3:20:38 / 3:19:16 Picot Matias Agustin M (+)
580 3:20:39 / 3:20:28 Fregenal Nicolas Alberto M (+)
581 3:20:42 / 3:19:28 Rowlands Mauricio Javier M (+)
582 3:20:42 / 3:19:52 Lopez Morelli Constanza F (+)
583 3:20:42 / 3:20:12 Cava Sandro M (+)
584 3:20:42 / 3:20:07 Mendez Rodriguez Oscar M (+)
585 3:20:47 / 3:20:44 Sotelo Maria Jose F (+)
586 3:20:49 / 3:20:31 Lescano Lucas Javier M (+)
587 3:20:49 / 3:19:56 Fretez Rejala Carlos Antonio M (+)
588 3:20:51 / 3:19:34 Prado Lucas Mariano M (+)
589 3:20:52 / 3:20:01 Rodriguez Diego Javier M (+)
590 3:20:53 / 3:20:35 Barreto Jael F (+)
591 3:20:53 / 3:19:26 Falchetto Silverio M (+)
592 3:20:58 / 3:20:51 Seberino Sergio Fabian M (+)
593 3:20:58 / 3:20:32 Rey Alejandro M (+)
594 3:20:58 / 3:20:24 Cecchi Federico M (+)
595 3:21:02 / 3:19:52 Maggiolo Thais F (+)
596 3:21:03 / 3:20:20 Da Silva Neto Carlos Pereira M (+)
597 3:21:05 / 3:19:34 Brotons Echevarria Victor Eduardo M (+)
598 3:21:06 / 3:20:11 Mazza Santiago M (+)
599 3:21:07 / 3:20:53 Garcia Costanzo Leandro M (+)
600 3:21:08 / 3:20:14 Christen Federico M (+)
601 3:21:14 / 3:19:48 Torres Ariel M (+)
602 3:21:15 / 3:21:02 Ferraris Federico Jose M (+)
603 3:21:18 / 3:20:47 Moreno Nicolas M (+)
604 3:21:20 / 3:21:00 Sacca Marcelo Jose M (+)
605 3:21:22 / 3:20:08 Marchisio Canete Aldo Horacio M (+)
606 3:21:23 / 3:19:46 Coriasco Fernando Anibal M (+)
607 3:21:24 / 3:20:25 Morales Juan Gonzalo M (+)
608 3:21:24 / 3:20:25 Fleitas Ramon Angel M (+)
609 3:21:26 / 3:20:59 Garay Maria Emilce F (+)
610 3:21:29 / 3:17:38 Nieman Walter M (+)
611 3:21:30 / 3:20:42 Ramos Donoso Pablo Nicolas M (+)
612 3:21:32 / 3:20:29 Albuquerque Gustavo M (+)
613 3:21:35 / 3:21:23 Gonzalez Fernando Rodolf M (+)
614 3:21:36 / 3:21:24 Fonseca Vanessa F (+)
615 3:21:37 / 3:02:55 Echaniz Mayero Federico Javier M (+)
616 3:21:39 / 3:20:32 Alvarez Diego M (+)
617 3:21:41 / 3:21:30 Muniz Gerardo M (+)
618 3:21:41 / 3:21:35 Blanco Carlos M (+)
619 3:21:43 / 3:20:37 Zupancic Luis M (+)
620 3:21:44 / 3:20:39 Ribeiro Da Costa Bruno Eduardo M (+)
621 3:21:44 / 3:20:09 Calado Fernando M (+)
622 3:21:45 / 3:20:37 Adeil Pietranera Ezequiel M (+)
623 3:21:45 / 3:20:49 Caporale Carlos Alberto M (+)
624 3:21:45 / 3:21:37 Rohland Joern M (+)
625 3:21:49 / 3:21:32 Caputi Carlos Alberto M (+)
626 3:21:49 / 3:21:35 Falco Leonardo M (+)
627 3:21:50 / 3:07:37 Rulli Fernando M (+)
628 3:21:52 / 3:20:56 Mino Federico M (+)
629 3:21:53 / 3:20:43 Cahuana Araujo Reynaldo Samuel M (+)
630 3:21:53 / 3:20:41 Ercoli Guillermo M (+)
631 3:21:54 / 3:21:33 Lepore Alvaro M (+)
632 3:21:55 / 3:20:57 Espinoza Roberto Adrian M (+)
633 3:21:56 / 3:21:37 Taglialegne Danilo Fabricio M (+)
634 3:22:00 / 3:21:16 Jorge Buzelin Breno M (+)
635 3:22:01 / 3:21:37 Pousada Ernesto M (+)
636 3:22:01 / 3:21:38 Sadek Jose M (+)
637 3:22:02 / 3:21:46 Gorosito Gustavo Javier M (+)
638 3:22:02 / 3:21:22 Albino Ciro M (+)
639 3:22:05 / 3:21:52 Nasif Gonzalo Matias M (+)
640 3:22:07 / 3:20:26 Medl Federico M (+)
641 3:22:13 / 3:03:31 Quiroga Silveyra Gerardo M (+)
642 3:22:14 / 3:22:07 Mosquera Leonardo M (+)
643 3:22:15 / 3:21:25 Bosaans Juan Cristobal M (+)
644 3:22:16 / 3:21:57 Zariaga Nestor M (+)
645 3:22:18 / 3:21:26 Urrego Lina F (+)
646 3:22:20 / 3:20:50 Carvalho Frederico De Mo M (+)
647 3:22:21 / 3:20:56 Benitez Juan Manuel M (+)
648 3:22:21 / 3:20:57 Pagura Mariano M (+)
649 3:22:22 / 3:22:12 Sagues Carlos M (+)
650 3:22:30 / 3:21:50 Luduena Sergio Daniel M (+)
651 3:22:30 / 3:20:55 Herrera Hernandez Daniel M (+)
652 3:22:31 / 3:21:49 Garces Giovanni M (+)
653 3:22:32 / 3:21:25 Teran Guillermo M (+)
654 3:22:33 / 3:21:51 Maselli Nancy Elizabeth F (+)
655 3:22:34 / 3:19:10 Lazarte Franco Mariano M (+)
656 3:22:36 / 3:22:17 Salvatierra Miguel Angel M (+)
657 3:22:44 / 3:21:43 Righetti Di Giacomo Rodrigo M (+)
658 3:22:50 / 3:22:16 Romero Andres M (+)
659 3:22:51 / 3:22:17 Delgado Leandro M (+)
660 3:22:53 / 3:22:39 Nesi Santiago M (+)
661 3:22:57 / 3:20:52 Huallpa Daniel M (+)
662 3:22:57 / 3:20:52 Bedoya Roly M (+)
663 3:22:58 / 3:21:52 Pombo Adrian M (+)
664 3:22:59 / 3:20:29 Gomez Ostos Diego Felipe M (+)
665 3:23:00 / 3:08:41 Rossi Federico M (+)
666 3:23:00 / 3:22:00 Dehaine Alejandro M (+)
667 3:23:02 / 3:22:31 Valle Bernardo M (+)
668 3:23:03 / 3:22:21 Lucentini Alejandro M (+)
669 3:23:05 / 3:21:46 Ale Guillermo M (+)
670 3:23:10 / 3:21:09 Galeano Franco M (+)
671 3:23:10 / 3:22:44 Dubois Pablo M (+)
672 3:23:11 / 3:22:00 Sosa Julio Roberto M (+)
673 3:23:11 / 3:22:00 Tadeo Martin M (+)
674 3:23:13 / 3:22:24 Marcos Gaston M (+)
675 3:23:14 / 3:21:51 Iribarne Manuel M (+)
676 3:23:18 / 3:23:07 Jimenez Palacios Francisco Javie M (+)
677 3:23:22 / 3:22:12 Hergenreder Marcelo M (+)
678 3:23:22 / 3:23:00 Guisolfo Nicolas M (+)
679 3:23:23 / 3:22:53 Del Sastre Ignacio M (+)
680 3:23:25 / 3:21:42 Lopes Caio M (+)
681 3:23:27 / 3:22:49 Linguanoto Silveira Alexandre M (+)
682 3:23:33 / 3:22:06 Santana Jorge Ruben M (+)
683 3:23:34 / 3:23:21 Abunasser Bassit (tu Reinaldo M (+)
684 3:23:39 / 3:18:54 Lagos Marcos Esteban M (+)
685 3:23:39 / 3:23:16 Terzano Leandro M (+)
686 3:23:41 / 3:23:33 Cantardji Lucas M (+)
687 3:23:42 / 3:19:36 Ortiz Caro Marlon Arlex M (+)
688 3:23:47 / 3:22:37 Ferran Felix Adrian M (+)
689 3:23:47 / 3:22:40 De Filippo Martin M (+)
690 3:23:47 / 3:23:12 Maestra Maria Belen F (+)
691 3:23:48 / 3:23:35 Padreda Mariano M (+)
692 3:23:49 / 3:22:51 Vivi Baggio Viviane Baggio F (+)
693 3:23:50 / 3:23:24 Ibarra Fabian Agustin M (+)
694 3:23:50 / 3:22:31 Durand Ullmann Franco M (+)
695 3:23:52 / 3:23:33 Garcia Jerez Pablo Javier M (+)
696 3:23:53 / 3:22:05 Mendez Martin M (+)
697 3:23:53 / 3:22:30 Santos Sergio Ferreira M (+)
698 3:24:00 / 3:22:27 Pasquesoone Thomas M (+)
699 3:24:02 / 3:23:35 Infante Bernardo M (+)
700 3:24:03 / 3:23:33 Stepa Sabrina F (+)
701 3:24:05 / 3:22:59 Civitillo Gabriel Luciano M (+)
702 3:24:06 / 3:23:37 Neto Analia Celeste F (+)
703 3:24:08 / 3:23:00 Artola Lucia F (+)
704 3:24:10 / 3:23:55 Espetxe Juan Manuel M (+)
705 3:24:11 / 3:23:50 Celalles Franco Agustin M (+)
706 3:24:11 / 3:22:44 German Emilio Andres M (+)
707 3:24:12 / 3:22:47 Gomez Javier M (+)
708 3:24:13 / 3:22:49 Ismail Alejandro M (+)
709 3:24:16 / 3:23:45 Garcia Francisco Solan M (+)
710 3:24:19 / 3:23:32 Casas Gonzalo Alberto M (+)
711 3:24:20 / 3:23:53 Amil Raul M (+)
712 3:24:21 / 3:23:29 Chia Sergio Fabian M (+)
713 3:24:22 / 3:23:35 Fernandez Joaquin M (+)
714 3:24:22 / 3:23:40 Ricer Sergio M (+)
715 3:24:23 / 3:23:13 Cirocco Cristian M (+)
716 3:24:24 / 3:23:51 Cabrera Diego Martin M (+)
717 3:24:28 / 3:23:38 Cortes Javier M (+)
718 3:24:31 / 3:24:01 Cisnero Matias M (+)
719 3:24:33 / 3:24:16 Magallanes Juan M (+)
720 3:24:33 / 3:24:06 Lawrynowicz Ignacio M (+)
721 3:24:34 / 3:23:07 Manenti Ezequiel Rodolf M (+)
722 3:24:35 / 3:24:09 Valatkiewicz Alejandro M (+)
723 3:24:35 / 3:23:30 Correa Nicolas M (+)
724 3:24:39 / 3:24:08 Patino Jose Sebastian M (+)
725 3:24:40 / 3:24:34 Cladera Juan Jose M (+)
726 3:24:41 / 3:24:24 Roblero Mauricio M (+)
727 3:24:42 / 3:23:06 Arce Daniel M (+)
728 3:24:42 / 3:23:27 Rabelo Ferreira Ivoleno M (+)
729 3:24:42 / 3:24:15 Facal Eduardo M (+)
730 3:24:43 / 3:24:32 Leonardini Tomas M (+)
731 3:24:43 / 3:23:06 Antenucci Lucas M (+)
732 3:24:43 / 3:23:13 Gestido Alvaro M (+)
733 3:24:43 / 3:23:48 Vistarop Lucas Martin M (+)
734 3:24:44 / 3:23:26 Monasterio Lucas M (+)
735 3:24:46 / 3:24:32 Parente Neto Francisco M (+)
736 3:24:46 / 3:23:45 Gonzalez Exequiel M (+)
737 3:24:56 / 3:24:03 Recabal Ramirez Sebastian M (+)
738 3:24:58 / 3:24:21 Garnier Thomas M (+)
739 3:25:01 / 3:24:12 Farina Mariano M (+)
740 3:25:01 / 3:24:52 Araujo Silva De Melo Rafael M (+)
741 3:25:02 / 3:24:45 Gonzalez Javier Alfredo M (+)
742 3:25:05 / 3:24:21 Carbone Hernan G. M (+)
743 3:25:06 / 3:23:57 Zapico Maximiliano M (+)
744 3:25:08 / 3:24:45 Trevisan Marcelo M (+)
745 3:25:08 / 3:24:44 Izquierdo Diego Leonardo M (+)
746 3:25:09 / 3:24:07 Farias Derlys Ramon M (+)
747 3:25:09 / 3:23:55 Taborda Leonardo M (+)
748 3:25:11 / 3:25:08 Cervera Adriana F (+)
749 3:25:13 / 3:24:56 Rivero Marcelo Sebasti M (+)
750 3:25:14 / 3:25:01 Hulse Wanderley Horn M (+)
751 3:25:15 / 3:25:02 Zanetti Federico M (+)
752 3:25:20 / 3:23:02 Centeno Victor Omar M (+)
753 3:25:21 / 3:25:06 Suarez Marcelo M (+)
754 3:25:22 / 3:24:32 Ginesi Mauro M (+)
755 3:25:26 / 3:23:40 Negrete Lisandro M (+)
756 3:25:27 / 3:24:45 Biasi Marco Aurelio M (+)
757 3:25:29 / 3:24:40 Marquez Pablo Ariel M (+)
758 3:25:35 / 3:24:37 Cocu Sergio M (+)
759 3:25:35 / 3:24:22 Castro Juan Antonio M (+)
760 3:25:36 / 3:23:02 Luzzi Fernando Adrian M (+)
761 3:25:36 / 3:22:06 Spongia Bilancetti Agustin M (+)
762 3:25:37 / 3:25:26 Gabin Juan Gabriel M (+)
763 3:25:37 / 3:24:03 Paparini Daniel Esteban M (+)
764 3:25:40 / 3:24:48 Aristi Javier M (+)
765 3:25:41 / 3:24:35 Alvarez Miguel Angel M (+)
766 3:25:42 / 3:24:39 Contreras Alderete Lucas Ismael M (+)
767 3:25:43 / 3:25:02 Heis Guillermo M (+)
768 3:25:48 / 3:24:42 Vicente Andres M (+)
769 3:25:48 / 3:25:20 Pelliccia Luciano M (+)
770 3:25:51 / 3:25:34 Ojeda Maria Magdalena F (+)
771 3:25:51 / 3:25:31 De Oliveira Sergio M (+)
772 3:25:54 / 3:25:31 Chu Chan Hay M (+)
773 3:25:55 / 3:25:34 Mungiello Sergio M (+)
774 3:26:03 / 3:25:28 Talavera Benitez Edgar M (+)
775 3:26:03 / 3:25:28 Chavez Sergio M (+)
776 3:26:05 / 3:25:55 Galeano Pablo Daniel M (+)
777 3:26:06 / 3:24:50 Sanchez Juan Damian M (+)
778 3:26:07 / 3:25:14 Aisemberg Jesica F (+)
779 3:26:07 / 3:25:00 Collazo Wilson Roberto M (+)
780 3:26:08 / 3:25:14 Eberle Christian M (+)
781 3:26:09 / 3:25:05 Burgos Israel Romualdo M (+)
782 3:26:09 / 3:25:06 Alvarez Ezequiel M (+)
783 3:26:11 / 3:25:50 Benitez Marcos Daniel M (+)
784 3:26:11 / 3:25:43 Salvatierra Javier M (+)
785 3:26:14 / 3:25:31 Tubia Alejandro M (+)
786 3:26:15 / 3:25:02 Harran Nicolas M (+)
787 3:26:18 / 3:25:35 Grippo Luciano M (+)
788 3:26:19 / 3:25:55 Zardi Airton Gil M (+)
789 3:26:19 / 3:25:35 Van Vroonhoven Esther F (+)
790 3:26:23 / 3:22:34 Ressi Gaston Abel M (+)
791 3:26:23 / 3:26:01 Butto Daniel M (+)
792 3:26:26 / 3:25:14 Merlo Fabi0 Walter M (+)
793 3:26:27 / 3:25:39 Esposito Federico M (+)
794 3:26:28 / 3:24:30 Perea Luis Alberto M (+)
795 3:26:28 / 3:24:31 Llauco Sebastian Eduar M (+)
796 3:26:29 / 3:26:10 Stang Leonardo M (+)
797 3:26:30 / 3:26:10 Blanco Julian Mariano M (+)
798 3:26:31 / 3:25:55 Rodriguez Aedo Ignacio M (+)
799 3:26:33 / 3:25:12 Cabrera De Armas Manuel M (+)
800 3:26:34 / 3:25:50 Gomez Cristian M (+)
801 3:26:35 / 3:24:59 Cordoba Javier M (+)
802 3:26:35 / 3:25:07 Lopez Fernando Marcel M (+)
803 3:26:36 / 3:24:45 Canete Leal Fernando M (+)
804 3:26:38 / 3:23:24 Lopez Nahuel Alejandr M (+)
805 3:26:39 / 3:24:32 Caldera Mercado Luis Ivan M (+)
806 3:26:39 / 3:25:48 Marano Marcelo M (+)
807 3:26:40 / 3:25:26 Gauna Cristian M (+)
808 3:26:44 / 3:26:30 Tarnovski Riane Lais F (+)
809 3:26:45 / 3:25:55 Arnedo Walter Eduardo M (+)
810 3:26:51 / 3:26:23 Delfino Pedro Horacio M (+)
811 3:26:53 / 3:25:56 Sosa Julian M (+)
812 3:26:54 / 3:26:37 Perez Escoda Gonzalo M (+)
813 3:27:00 / 3:25:33 Fiorito Marcelo M (+)
814 3:27:01 / 3:25:42 Olivera Damian Jorge M (+)
815 3:27:04 / 3:26:37 Oscar Marcos M (+)
816 3:27:05 / 3:25:56 Cahill Martin M (+)
817 3:27:06 / 3:26:14 Alday Jose Luis M (+)
818 3:27:06 / 3:26:40 Larrosa Sergio M (+)
819 3:27:06 / 3:25:53 Moreira Marcelo M (+)
820 3:27:12 / 3:26:37 Gomez Nicolas M (+)
821 3:27:14 / 3:24:59 Guerrero Mathias M (+)
822 3:27:19 / 3:27:05 Medina Sosa Cristian Eduard M (+)
823 3:27:21 / 3:26:57 Cao Cristian Fernan M (+)
824 3:27:22 / 3:25:15 E Silva Evandro Maciel M (+)
825 3:27:24 / 3:26:46 Lezaeta Andres M (+)
826 3:27:24 / 3:27:02 Carrasco Ariel M (+)
827 3:27:25 / 3:27:01 Friedrich Sandra Isabel F (+)
828 3:27:25 / 3:23:05 Gerez Pablo Luciano M (+)
829 3:27:26 / 3:25:26 Martins Dos Reis Fabio M (+)
830 3:27:28 / 3:20:29 Barrionuevo Adrian M (+)
831 3:27:30 / 3:26:49 Gandolfi Dante M (+)
832 3:27:30 / 3:26:23 Silva Mauricio Rodrig M (+)
833 3:27:32 / 3:26:44 Comisso Carlos Alberto M (+)
834 3:27:38 / 3:26:53 Martino Lucas M (+)
835 3:27:38 / 3:25:58 Giordano Martin David M (+)
836 3:27:38 / 3:26:43 Gerold Lucas M (+)
837 3:27:41 / 3:27:08 Magalhaes Fernando M (+)
838 3:27:42 / 3:26:10 Sillero Gustavo M (+)
839 3:27:42 / 3:26:19 Ayerza Patricio M (+)
840 3:27:44 / 3:25:01 Camargo Bastidas Juan Carlos M (+)
841 3:27:45 / 3:26:26 Rodriguez Jorge M (+)
842 3:27:49 / 3:26:05 Scazzola Lucas Daniel M (+)
843 3:27:53 / 3:26:29 Lucero Claudio M (+)
844 3:27:54 / 3:26:46 Simonetta Marcos M (+)
845 3:27:55 / 3:27:39 Meng Luis Alberto M (+)
846 3:27:55 / 3:27:24 Pages Carlos Javier M (+)
847 3:27:56 / 3:27:02 Aguiar Raimundo Andrad M (+)
848 3:28:06 / 3:27:10 Pina Rodriguez Juan Javier M (+)
849 3:28:08 / 3:27:55 Castaneda Guillermo Danie M (+)
850 3:28:08 / 3:26:50 Pascual Battista Alejandro M (+)
851 3:28:09 / 3:26:54 Meroni David M (+)
852 3:28:10 / 3:27:49 Maraquia Vanesa F (+)
853 3:28:10 / 3:27:29 Neves Marcelo M (+)
854 3:28:12 / 3:26:31 Schiavon Flabia F (+)
855 3:28:12 / 3:25:46 Villalba Ramon M (+)
856 3:28:13 / 3:27:28 Herrero Alejandro M (+)
857 3:28:17 / 3:28:08 Jokiel Brocciero Carlos Leandro M (+)
858 3:28:21 / 3:27:56 Calvo Walter Raul M (+)
859 3:28:22 / 3:26:31 Garcia Marquez Carlos M (+)
860 3:28:22 / 3:27:45 Navarro Eduardo Fabio M (+)
861 3:28:26 / 3:27:18 Gonzalez Mauro M (+)
862 3:28:26 / 3:28:26 Tabanera Mariano Agustin M (+)
863 3:28:26 / 3:27:44 Pagani Florencia F (+)
864 3:28:27 / 3:27:57 Vadillo Javier M (+)
865 3:28:28 / 3:27:36 Cruz Jaime M (+)
866 3:28:28 / 3:27:42 Mariz Dourado Bruno M (+)
867 3:28:32 / 3:27:10 Rivera Talavera Maria Del Carme F (+)
868 3:28:34 / 3:28:13 Cuenca Davalos Aristides Juan M (+)
869 3:28:35 / 3:27:32 Diaz Juan Ignacio M (+)
870 3:28:35 / 3:27:20 Alves Bernardo Andre M (+)
871 3:28:36 / 3:27:15 Eggel German Del Vall M (+)
872 3:28:36 / 3:27:16 MacArrilla Daniel M (+)
873 3:28:36 / 3:26:58 Giovanetti Pablo M (+)
874 3:28:37 / 3:27:20 Di Veltz Hernan M (+)
875 3:28:40 / 3:27:15 Ameijeiras Sergio M (+)
876 3:28:46 / 3:27:46 Fontana Marlon Antonio M (+)
877 3:28:49 / 3:27:25 Ribotta Roman M (+)
878 3:28:50 / 3:27:25 Romero Alejandro M (+)
879 3:28:50 / 3:27:25 Castro Josias M (+)
880 3:28:52 / 3:27:53 Tarabini Juan Manuel M (+)
881 3:28:52 / 3:28:11 Albornoz Natalia F (+)
882 3:28:54 / 3:27:35 Gura Pedro Daniel M (+)
883 3:28:55 / 3:28:10 Solar Tomas M (+)
884 3:28:56 / 3:27:58 Sturtridge Timothy M (+)
885 3:28:56 / 3:28:27 Herrera Hernandez Daniel M (+)
886 3:28:57 / 3:27:40 Campos Del Castillo Mirko Renatto M (+)
887 3:28:59 / 3:27:34 Lopez Martin Ruben M (+)
888 3:28:59 / 3:28:48 Perez Gabriel M (+)
889 3:28:59 / 3:27:56 Espinola Alejandro M (+)
890 3:29:00 / 3:27:07 Burgos Martinez Jorge M (+)
891 3:29:00 / 3:28:30 Coronel Pablo Andres M (+)
892 3:29:00 / 3:28:04 Ortiz Dario M (+)
893 3:29:01 / 3:28:40 Viegas Guillermo M (+)
894 3:29:03 / 3:28:15 Mojsiejonek Jorge M (+)
895 3:29:11 / 3:28:30 Mariani Ariel M (+)
896 3:29:11 / 3:27:47 Moretto Jose Alberto M (+)
897 3:29:12 / 3:28:18 Castellano Ramiro M (+)
898 3:29:13 / 3:27:58 Gomez Diego M (+)
899 3:29:14 / 3:28:55 Caballieri Gustavo Ariel M (+)
900 3:29:16 / 3:28:51 Bascoy Daniel M (+)
901 3:29:17 / 3:29:10 Mazzola Ricardo M (+)
902 3:29:19 / 3:28:27 Saenz Diego M (+)
903 3:29:20 / 3:28:47 JuliAo Arnobio M (+)
904 3:29:20 / 3:28:44 Eras Quirola Andrea Vanessa F (+)
905 3:29:20 / 3:27:54 MacEdo Maximiliano M (+)
906 3:29:23 / 3:28:27 Bazan Marcelo Gustavo M (+)
907 3:29:24 / 3:27:50 Severino Adrian M (+)
908 3:29:25 / 3:28:14 Bucconi Marcelo Eduardo M (+)
909 3:29:25 / 3:27:39 Morales San Roman Patricio Rodrig M (+)
910 3:29:27 / 3:26:59 Cohen Jonathan M (+)
911 3:29:29 / 3:28:46 Barnetche Ivana F (+)
912 3:29:30 / 3:27:14 Da Silva Castro Julio Cezar M (+)
913 3:29:33 / 3:28:04 Garcia Juan Pablo M (+)
914 3:29:37 / 3:28:52 Beriani Filippa Tomas M (+)
915 3:29:39 / 3:28:58 Lima Josivan M (+)
916 3:29:39 / 3:28:55 Moscoso Christian M (+)
917 3:29:39 / 3:28:35 Cora Horacio Walter M (+)
918 3:29:40 / 3:28:25 Flanchez Tatu M (+)
919 3:29:42 / 3:29:30 Payalaf Enrique Dario M (+)
920 3:29:43 / 3:29:05 Al Makul Fabiano M (+)
921 3:29:43 / 3:28:52 Borque Andres M (+)
922 3:29:43 / 3:28:55 Caputo Jesus Miguel M (+)
923 3:29:45 / 3:28:36 Echeverry Daniela Mariana F (+)
924 3:29:48 / 3:28:36 Filippini Norberto Orland M (+)
925 3:29:48 / 3:29:36 Santillan Diego Armando M (+)
926 3:29:49 / 3:27:56 Angeletti Esteban M (+)
927 3:29:49 / 3:28:41 Santisteban Valdez Jose Antonio M (+)
928 3:29:50 / 3:29:06 Cardinaux Antonio M (+)
929 3:29:54 / 3:25:51 Garcia Alejandro M (+)
930 3:29:55 / 3:28:31 Ferreyra Ramiro Hector M (+)
931 3:29:56 / 3:29:08 Cayo Gira Armando M (+)
932 3:29:56 / 3:25:54 Rozen Ana F (+)
933 3:29:57 / 3:29:22 Gonzalez Rodolfo Daniel M (+)
934 3:29:58 / 3:28:57 Miqueles Perez Ivan Marcel M (+)
935 3:29:58 / 3:28:33 Quispe Azquicho Domingo M (+)
936 3:29:58 / 3:28:36 Cutrullis Alejandro M (+)
937 3:29:59 / 3:28:45 Rodriguez Gustavo Adolfo M (+)
938 3:29:59 / 3:28:09 Cari Dario M (+)
939 3:29:59 / 3:26:39 Ramirez Gustavo M (+)
940 3:30:01 / 3:29:40 Alves Da Silva Jose M (+)
941 3:30:03 / 3:29:38 Lorizio Juan Jose M (+)
942 3:30:04 / 3:29:32 Acha Alejandro M (+)
943 3:30:05 / 3:29:23 Aller Rodrigo M (+)
944 3:30:06 / 3:29:51 Perafan Jose Maria M (+)
945 3:30:08 / 3:29:28 Lagoeiro Dulce F (+)
946 3:30:09 / 3:26:59 De Boni Gustavo M (+)
947 3:30:09 / 3:28:46 Rey Myriam Silvana F (+)
948 3:30:10 / 3:29:36 Fernandez Blanco Marcelo Fabio M (+)
949 3:30:12 / 3:29:47 Martinez Gaston Alberto M (+)
950 3:30:14 / 3:27:55 Heine Julian M (+)
951 3:30:22 / 3:29:14 Sanches Adriano M (+)
952 3:30:23 / 3:29:37 Cienara Cienara Silvia F (+)
953 3:30:23 / 3:29:23 Schettino Luciano Javier M (+)
954 3:30:24 / 3:29:55 Medeiros Fernanda F (+)
955 3:30:24 / 3:30:12 Pereira Andrian M (+)
956 3:30:25 / 3:29:09 Etcheverry Pablo Daniel M (+)
957 3:30:25 / 3:27:28 Huszcza Cardenaz Osmar Bernardes M (+)
958 3:30:27 / 3:30:12 Liguori Ariel M (+)
959 3:30:28 / 3:29:49 Felix Augusto M (+)
960 3:30:29 / 3:29:04 Gil Luis M (+)
961 3:30:29 / 3:30:03 Gareca Jose Marcelo M (+)
962 3:30:29 / 3:29:06 Toal Stephen M (+)
963 3:30:30 / 3:26:44 De Bortoli Anibal Rolando M (+)
964 3:30:31 / 3:30:11 Capozzoli Oscar Adrian M (+)
965 3:30:31 / 3:29:11 Egozcue Diego M (+)
966 3:30:34 / 3:29:36 Rosso Isadora F (+)
967 3:30:34 / 3:29:35 Bischoff Juliana F (+)
968 3:30:35 / 3:29:25 Sims Jacob M (+)
969 3:30:36 / 3:29:31 Tolaba Benjamin Jose M M (+)
970 3:30:37 / 3:29:22 Gonzalez Del Castano Cristian Javier M (+)
971 3:30:37 / 3:27:14 Coceres Jeronimo M (+)
972 3:30:37 / 3:29:16 Nieva Omar Dario M (+)
973 3:30:39 / 3:30:17 Wendel Daruich Santiago Federi M (+)
974 3:30:39 / 3:29:10 Chaves Bahia Ronaldo M (+)
975 3:30:40 / 3:29:45 Hidalgo Olave Francisco M (+)
976 3:30:41 / 3:29:28 Nesteruk Mauricio Ivan M (+)
977 3:30:41 / 3:29:51 Bentancurt Vanessa F (+)
978 3:30:43 / 3:29:58 Dibbern Guillermo M (+)
979 3:30:44 / 3:29:54 Poggi Anibal M (+)
980 3:30:45 / 3:29:55 Nessi Edgardo Martin M (+)
981 3:30:47 / 3:30:13 Figueroa Eduardo M (+)
982 3:30:47 / 3:30:35 Mogni Victor M (+)
983 3:30:47 / 3:30:02 Viglione Diego Matias M (+)
984 3:30:47 / 3:30:31 Shigenaga Ricardo M (+)
985 3:30:47 / 3:28:16 Woollands Luciano Gaston M (+)
986 3:30:48 / 3:27:55 Garcia Dos Santos Douglas M (+)
987 3:30:51 / 3:30:10 De La Rosa Gustavo M (+)
988 3:30:52 / 3:29:53 Venier Federico M (+)
989 3:30:54 / 3:30:28 Eberle Oscar M (+)
990 3:30:55 / 3:29:30 Murado Gonzalo M (+)
991 3:30:55 / 3:30:25 Maidana Fernando M (+)
992 3:30:56 / 3:28:28 Bavosi Gabriel Luis M (+)
993 3:30:56 / 3:29:39 Chirino Becerra Franco Neri M (+)
994 3:30:58 / 3:30:34 Robledo Miguel Angel M (+)
995 3:30:58 / 3:30:12 Craveri Juan M (+)
996 3:31:00 / 3:29:51 Mastroverti Nicolas M (+)
997 3:31:01 / 3:30:45 Bignone Gustavo E M (+)
998 3:31:01 / 3:30:12 Sa Ferreira Vinicius M (+)
999 3:31:02 / 3:29:10 Cuervo Gutierrez Leonardo Ariel M (+)
1000 3:31:05 / 3:29:11 Agnoletti Mauro M (+)
1001 3:31:07 / 3:29:09 Paterno Juan Marcos Ger M (+)
1002 3:31:07 / 3:30:27 Laurino Diego M (+)
1003 3:31:08 / 3:29:46 Vega Teresita Maria F (+)
1004 3:31:13 / 3:27:36 Casellato Guido M (+)
1005 3:31:16 / 3:30:30 Alvarez Mas Dante M (+)
1006 3:31:20 / 3:31:02 Sanchez Omar Enrique M (+)
1007 3:31:25 / 3:30:26 Sanchez Gabriel M (+)
1008 3:31:27 / 3:30:35 Marcogiuseppe Luis Facundo M (+)
1009 3:31:27 / 3:31:01 Esperguin Patricio Omar M (+)
1010 3:31:27 / 3:30:22 Hernandez Lucas M (+)
1011 3:31:28 / 3:29:57 Bittencourt Gustavo M (+)
1012 3:31:28 / 3:30:43 Possari Marcia F (+)
1013 3:31:30 / 3:30:12 Giacomelli Da Silva Aurelio M (+)
1014 3:31:31 / 3:30:13 Hernandez Caceres Margot F (+)
1015 3:31:33 / 3:30:17 Costa Luiz Eugenio M (+)
1016 3:31:34 / 3:29:58 Sanso Daniel M (+)
1017 3:31:37 / 3:30:12 Nieto Mariano M (+)
1018 3:31:38 / 3:29:29 Oliveira Andre M (+)
1019 3:31:38 / 3:31:24 Pereda Luiz Eduardo Ca M (+)
1020 3:31:39 / 3:30:05 Sanchez Carla F (+)
1021 3:31:39 / 3:31:11 Moreno Andres Rene M (+)
1022 3:31:42 / 3:30:10 Lopez Nicolas Sebasti M (+)
1023 3:31:44 / 3:30:04 Torres Ariel M (+)
1024 3:31:49 / 3:31:26 Lucena Jose M (+)
1025 3:31:51 / 3:30:54 Cholakian Mariano Daniel M (+)
1026 3:31:51 / 3:29:29 Elebaster Damian Ariel M (+)
1027 3:31:54 / 3:30:25 Sottomaior Morgana F (+)
1028 3:31:56 / 3:30:49 Lertora Damian M (+)
1029 3:31:56 / 3:30:54 Rode Luciano M (+)
1030 3:31:56 / 3:27:10 Bolontrade Jose Maria M (+)
1031 3:31:58 / 3:30:41 Konikoff Esteban M (+)
1032 3:32:01 / 3:31:49 Kuriger Fernando M (+)
1033 3:32:01 / 3:31:34 Cravero Pablo M (+)
1034 3:32:03 / 3:31:20 Exeni Adrian M (+)
1035 3:32:05 / 3:29:51 Polar Gandarillas Lionel Enrique M (+)
1036 3:32:06 / 3:29:49 Rosa Miguel M (+)
1037 3:32:06 / 3:31:21 Molina Valdivieso Jose M (+)
1038 3:32:09 / 3:31:49 Oliva Elias Ezequiel M (+)
1039 3:32:11 / 3:31:13 Cantafio Vanina F (+)
1040 3:32:12 / 3:31:25 Saldana Emanuel M (+)
1041 3:32:12 / 3:30:54 Serino Pascual M (+)
1042 3:32:14 / 3:31:47 Salomone Jorge Enrique M (+)
1043 3:32:15 / 3:30:44 Gnini Adrian M (+)
1044 3:32:15 / 3:30:30 Mahmet Fernando M (+)
1045 3:32:17 / 3:30:46 Munoz Denisse F (+)
1046 3:32:18 / 3:30:56 Uribe Cerda Sofia F (+)
1047 3:32:21 / 3:30:54 Koch Ivan M (+)
1048 3:32:22 / 3:31:22 Piedra Andrea F (+)
1049 3:32:22 / 3:29:42 Oliveira Felipe M (+)
1050 3:32:22 / 3:30:44 Giambastiani Gustavo M (+)
1051 3:32:27 / 3:31:17 Ruiz Diaz Isidro M (+)
1052 3:32:31 / 3:31:34 Schweizer Maximiliano M (+)
1053 3:32:34 / 3:31:31 Armento Diego Martin M (+)
1054 3:32:35 / 3:31:39 Hernandez Mauricio Fabian M (+)
1055 3:32:35 / 3:31:17 Leppera Hector Martin M (+)
1056 3:32:37 / 3:29:28 Lofredo Natalia F (+)
1057 3:32:38 / 3:31:39 Ureta Fernando German M (+)
1058 3:32:38 / 3:31:40 Diaz Maycol M (+)
1059 3:32:38 / 3:30:43 Ramini Paenza Alejandro M (+)
1060 3:32:39 / 3:32:00 Magliano Diaz Angel Gustavo M (+)
1061 3:32:40 / 3:30:38 Ceraldi Diego M (+)
1062 3:32:40 / 3:31:50 Alomon Victor Hugo M (+)
1063 3:32:40 / 3:31:01 Armando Maria Sol F (+)
1064 3:32:42 / 3:31:21 Schernetzki Miguel Angel M (+)
1065 3:32:42 / 3:29:41 Mazzitelli Daniel M (+)
1066 3:32:43 / 3:32:14 Caldas Barreto Lucia F (+)
1067 3:32:43 / 3:29:40 Sanchez Borghi Facundo Manuel M (+)
1068 3:32:47 / 3:32:31 Arnez Orlando M (+)
1069 3:32:48 / 3:31:53 Berri Sebastian M (+)
1070 3:32:48 / 3:29:12 Bien Martin M (+)
1071 3:32:51 / 3:32:23 Erices Paz Juan Carlos M (+)
1072 3:32:51 / 3:30:43 Arboleda Saavedra Oscar Julian M (+)
1073 3:32:52 / 3:31:53 Sotelo Alberto M (+)
1074 3:32:53 / 3:32:27 Negreiros Alex M (+)
1075 3:32:53 / 3:30:25 Padron Walter M (+)
1076 3:32:55 / 3:13:53 Bianchi Simaldoni Leonardo Daniel M (+)
1077 3:32:57 / 3:32:13 Treglia Lisandro Omar M (+)
1078 3:33:00 / 3:32:06 Bucciarelli Luciano M (+)
1079 3:33:00 / 3:31:52 Baldini Osvaldo Carlos M (+)
1080 3:33:00 / 3:29:51 Zanga Antony M (+)
1081 3:33:00 / 3:31:25 Barrero Maria Guadalupe F (+)
1082 3:33:00 / 3:31:25 Arslanian Lily F (+)
1083 3:33:01 / 3:32:34 Bustamante Santiago M (+)
1084 3:33:02 / 3:32:56 Santellan Cristian Daniel M (+)
1085 3:33:03 / 3:32:20 Rios Emanuel M (+)
1086 3:33:04 / 3:32:21 Cortina Diego Miguel M (+)
1087 3:33:05 / 3:31:22 Guimaraes Andre Luis Durv M (+)
1088 3:33:09 / 3:32:39 Lanziloti Joao M (+)
1089 3:33:10 / 3:32:51 Tripicio Yair M (+)
1090 3:33:10 / 3:31:39 Lages Gurgel Daniel Tamba Ta M (+)
1091 3:33:13 / 3:31:58 Moreno Victor M (+)
1092 3:33:15 / 3:31:30 Bordon Nahuel Maximili M (+)
1093 3:33:16 / 3:31:20 Egusquiza Gabriel Oscar M (+)
1094 3:33:18 / 3:30:20 Ahumada Altamirano Mauro Ezequiel M (+)
1095 3:33:18 / 3:32:59 Ferraro Adrian Matias M (+)
1096 3:33:19 / 3:32:41 Fernandez Rodrigo Alejand M (+)
1097 3:33:22 / 3:32:08 Bretti Jean Paul M (+)
1098 3:33:25 / 3:32:43 Giner Cristian M (+)
1099 3:33:25 / 3:31:48 Tarandetti Damian Armando M (+)
1100 3:33:25 / 3:28:28 Villa Paola F (+)
1101 3:33:26 / 3:33:07 Baez Eduardo M (+)
1102 3:33:27 / 3:32:47 Zarzour Jonathan M (+)
1103 3:33:28 / 3:32:48 Bos Anderson M (+)
1104 3:33:29 / 3:31:30 Medina Oscar M (+)
1105 3:33:30 / 3:32:34 Burafi Ruben M (+)
1106 3:33:32 / 3:32:49 Godoy Fabio M (+)
1107 3:33:38 / 3:31:02 Moreira Jose Geraldo Ve M (+)
1108 3:33:39 / 3:31:41 Nunes George M (+)
1109 3:33:44 / 3:32:26 Arenas Ariel Fernando M (+)
1110 3:33:44 / 3:32:36 Lancha Alves De Oliv Gabriel M (+)
1111 3:33:44 / 3:32:35 Lima Leonardo M (+)
1112 3:33:46 / 3:33:32 Farina Fernando Ariel M (+)
1113 3:33:47 / 3:32:05 Pollola Maria Florencia F (+)
1114 3:33:48 / 3:31:41 Romero Jose Humberto M (+)
1115 3:33:50 / 3:32:07 Moraes Pedro M (+)
1116 3:33:50 / 3:32:52 Lamanuzzi Hernan M (+)
1117 3:33:57 / 3:32:42 Cereceda Sergio M (+)
1118 3:33:59 / 3:33:45 Jarrin Leonel M (+)
1119 3:33:59 / 3:32:52 Borgnino Alejandro M (+)
1120 3:34:00 / 3:32:28 Belmejo Marques Rafael M (+)
1121 3:34:03 / 3:30:28 Gomez Facundo M (+)
1122 3:34:04 / 3:33:08 Arpin Marc M (+)
1123 3:34:05 / 3:31:58 Cotens Hernan M (+)
1124 3:34:06 / 3:33:40 Santinnal Sebastian M (+)
1125 3:34:08 / 3:32:40 Benetti Cristian M (+)
1126 3:34:10 / 3:33:33 Coria Daniel Alejandr M (+)
1127 3:34:11 / 3:33:30 Kraayenbrink Jeremy F (+)
1128 3:34:12 / 3:32:17 Rodriguez Joaquin M (+)
1129 3:34:12 / 3:31:15 Espindola Pablo M (+)
1130 3:34:14 / 3:33:03 Amiano Jorge M (+)
1131 3:34:14 / 3:31:55 Cespedes Matias M (+)
1132 3:34:15 / 3:32:44 Valsagna Nicolas Jose M (+)
1133 3:34:16 / 3:32:16 Santos Juliana F (+)
1134 3:34:16 / 3:32:21 Carabajal Emmanuel M (+)
1135 3:34:17 / 3:22:36 Gil Carlos Enrique M (+)
1136 3:34:20 / 3:31:50 Ochoa Roblez Jose Manuel M (+)
1137 3:34:22 / 3:34:10 Siruk Lorena Maricel F (+)
1138 3:34:23 / 3:30:07 Prado Marcelo M (+)
1139 3:34:23 / 3:33:58 Raymundo Waldo M (+)
1140 3:34:25 / 3:33:47 Lamonica Silvio M (+)
1141 3:34:28 / 3:09:36 Marquetti Federico M (+)
1142 3:34:34 / 3:32:57 Noe Jorge M (+)
1143 3:34:35 / 3:34:05 Estevez Martin M (+)
1144 3:34:37 / 3:33:06 De Sousa Lucia Francisca F (+)
1145 3:34:38 / 3:34:18 Figueiredo Alessio M (+)
1146 3:34:38 / 3:31:30 Pinheiro Denys M (+)
1147 3:34:39 / 3:34:18 Augusto Augusto Carlos M (+)
1148 3:34:40 / 3:34:05 Cavallo Ronald Daniel M (+)
1149 3:34:41 / 3:20:23 Tettamanti Gabriel M (+)
1150 3:34:43 / 3:33:47 Coelho Edimar M (+)
1151 3:34:49 / 3:34:08 Dominguez Mauricio Alejan M (+)
1152 3:34:50 / 3:33:08 Martin Federico M (+)
1153 3:34:54 / 3:33:02 Cassio Silva Lucimar M (+)
1154 3:34:54 / 3:33:46 Lapasta Javier M (+)
1155 3:34:56 / 3:32:58 Santos Fernando M (+)
1156 3:35:01 / 3:34:44 Turano Adrian M (+)
1157 3:35:02 / 3:34:11 Mirabal Carlos M (+)
1158 3:35:02 / 3:33:54 Dastugue Ignacio Matias M (+)
1159 3:35:03 / 3:34:10 Gonzalez Gustavo Gabriel M (+)
1160 3:35:04 / 3:32:19 Yamaguro Renato M (+)
1161 3:35:06 / 3:34:20 Cardozo Elvio M (+)
1162 3:35:08 / 3:33:43 Ferrari Matias Augusto M (+)
1163 3:35:09 / 3:33:58 Gonzalez Sebastian Ignac M (+)
1164 3:35:11 / 3:34:35 Chuliber Hernan Ariel M (+)
1165 3:35:12 / 3:34:54 Perdiguera Manuel Antonio M (+)
1166 3:35:12 / 3:33:42 Gomez Bermudez Rodrigo M (+)
1167 3:35:14 / 3:34:02 AssumpcAo Pedro M (+)
1168 3:35:15 / 3:33:17 De La Fava Ignacio Guido M (+)
1169 3:35:16 / 3:33:03 Leao Cristian M (+)
1170 3:35:17 / 3:31:31 Bohl Jerek M (+)
1171 3:35:19 / 3:34:01 Gonzalez Paul M (+)
1172 3:35:19 / 3:34:10 Cabarrou Milagros F (+)
1173 3:35:22 / 3:34:45 Sapanott Sergio M (+)
1174 3:35:23 / 3:34:00 Salvo Eduardo M (+)
1175 3:35:24 / 3:34:33 Horimoto Fabiano M (+)
1176 3:35:24 / 3:32:59 Ruiz Franco M (+)
1177 3:35:25 / 3:33:30 Wasylkiw Alejandro M (+)
1178 3:35:27 / 3:34:54 MacIel Martinez Oscar M (+)
1179 3:35:28 / 3:31:25 Cedeno Alberto Fabian M (+)
1180 3:35:28 / 3:35:11 Ucar Maria F (+)
1181 3:35:30 / 3:34:34 Franchino Alejandro M (+)
1182 3:35:31 / 3:34:01 Dalessandro Gabriel M (+)
1183 3:35:31 / 3:34:29 Sosa Nicolas Martin M (+)
1184 3:35:31 / 3:33:45 Sibiglia Diego M (+)
1185 3:35:33 / 3:33:16 Galante Facundo Martin M (+)
1186 3:35:33 / 3:35:04 Garcia Gustavo Enrique M (+)
1187 3:35:35 / 3:33:15 Bartet Juan Pablo M (+)
1188 3:35:37 / 3:34:36 Dragonetti Hugo M (+)
1189 3:35:38 / 3:33:58 Reis Neto Ricardo M (+)
1190 3:35:40 / 3:34:40 Romario Romario Limberg M (+)
1191 3:35:42 / 3:33:46 Paez Juan Ignacio M (+)
1192 3:35:45 / 3:35:11 Caro Jorge M (+)
1193 3:35:51 / 3:34:35 Vallejos Jose Ramon M (+)
1194 3:35:51 / 3:34:45 Alves AragAo Junior Daniel M (+)
1195 3:35:51 / 3:35:23 Tuccella Hernan M (+)
1196 3:35:53 / 3:34:28 Caivano Cristian Andres M (+)
1197 3:35:54 / 3:35:36 Bermudez Lucas M (+)
1198 3:35:58 / 3:33:56 Donnantuoni Diego M (+)
1199 3:36:00 / 3:34:02 Calleja Gustavo Alfredo M (+)
1200 3:36:03 / 3:33:55 Orons Nelson M (+)
1201 3:36:05 / 3:34:21 Castex Gervasio M (+)
1202 3:36:05 / 3:32:54 Menezes Mathias Roberto M (+)
1203 3:36:06 / 3:35:03 Ranea Fabio M (+)
1204 3:36:15 / 3:35:05 Belles Ignacio M (+)
1205 3:36:16 / 3:34:55 Juarez Emilio M (+)
1206 3:36:16 / 3:35:46 Misael Duarte Piment Misael M (+)
1207 3:36:18 / 3:36:04 Tosi Javier M (+)
1208 3:36:21 / 3:34:41 Almeida Paulo M (+)
1209 3:36:22 / 3:35:45 Seoane Martin M (+)
1210 3:36:25 / 3:34:24 Sanchez Gavier Juan Martin M (+)
1211 3:36:26 / 3:34:34 Blanco Enrique M (+)
1212 3:36:29 / 3:35:26 Marcellino Grillo Jose Eduardo M (+)
1213 3:36:29 / 3:35:16 Aguirre David M (+)
1214 3:36:31 / 3:35:34 Benitez Juan Marcelo M (+)
1215 3:36:31 / 3:33:53 Baeza Henriquez Alejandro Anton M (+)
1216 3:36:33 / 3:35:23 Barbosa Adoni Felipe M (+)
1217 3:36:33 / 3:32:36 Abrahantes Delgado Marvin M (+)
1218 3:36:34 / 3:35:11 Ferrari Ana Paula F (+)
1219 3:36:37 / 3:35:47 Collazo Fernando M (+)
1220 3:36:38 / 3:34:50 Mediero Emilia F (+)
1221 3:36:39 / 3:36:20 Simone Jorge Matias M (+)
1222 3:36:39 / 3:31:53 Ruffino Diego Martin M (+)
1223 3:36:41 / 3:35:45 Decima Daniel Humberto M (+)
1224 3:36:45 / 3:36:05 Villaverde Carolina F (+)
1225 3:36:47 / 3:36:34 Dos Reis Marcelo M (+)
1226 3:36:49 / 3:33:57 De Souza Deives Andre M (+)
1227 3:36:50 / 3:33:59 Remedios Jonathan M (+)
1228 3:36:51 / 3:36:35 Del Rio Miguel Angel M (+)
1229 3:36:51 / 3:36:25 Tonel Fernando M (+)
1230 3:36:54 / 3:35:53 Pochettino Pablo M (+)
1231 3:36:55 / 3:36:21 Marin Alonso M (+)
1232 3:36:55 / 3:36:40 Dorado Eric Josue M (+)
1233 3:36:57 / 3:36:08 Muntaner Nestor M (+)
1234 3:36:59 / 3:36:24 Paulo Mesquita Vinicius M (+)
1235 3:37:00 / 3:35:50 De La Fuente Maximiliano Seb M (+)
1236 3:37:01 / 3:35:38 Corral Diego Martin M (+)
1237 3:37:01 / 3:32:33 Sannez Facundo M (+)
1238 3:37:02 / 3:31:34 Gatti John M (+)
1239 3:37:05 / 3:36:22 Alomon Sergio M (+)
1240 3:37:07 / 3:35:45 Teixeira Do Amaral Marcelo M (+)
1241 3:37:07 / 3:35:36 Dunker Alfredo M (+)
1242 3:37:08 / 3:36:16 Mendieta Martin Edgardo M (+)
1243 3:37:08 / 3:35:02 Mantchoff Gaston Martin M (+)
1244 3:37:09 / 3:36:08 Gioia Antonio M (+)
1245 3:37:10 / 3:36:08 Sperling Marc M (+)
1246 3:37:10 / 3:36:20 Ferrero Gustavo M (+)
1247 3:37:11 / 3:31:31 Recalde Gustavo M (+)
1248 3:37:12 / 3:36:12 Sayes Ruben M (+)
1249 3:37:14 / 3:34:09 Echenique Gaston M (+)
1250 3:37:15 / 3:36:19 Gillet Yann M (+)
1251 3:37:16 / 3:35:51 Andino Diego Adrian M (+)
1252 3:37:17 / 3:35:10 Ramonda Pedro Matias M (+)
1253 3:37:18 / 3:37:02 Almerares Leandro Noel M (+)
1254 3:37:21 / 3:37:10 Juarez Mariano M (+)
1255 3:37:21 / 3:37:12 Julian Juan De Jesus M (+)
1256 3:37:23 / 3:36:35 Provenzano Javier M (+)
1257 3:37:23 / 3:36:56 Passos Ramalhete Marina F (+)
1258 3:37:23 / 3:36:11 Lazzarotti Maria Sofia F (+)
1259 3:37:26 / 3:36:10 Vazquez Juan Carlos M (+)
1260 3:37:27 / 3:36:30 Morcillo Javier M (+)
1261 3:37:27 / 3:36:12 Hernandez Julian M (+)
1262 3:37:29 / 3:36:11 Costas Jose Sebastian M (+)
1263 3:37:29 / 3:36:37 Jabalquinto Mario M (+)
1264 3:37:30 / 3:35:26 Lasso Palomino Ruben Eduardo M (+)
1265 3:37:30 / 3:35:08 Baldini Jorgelina F (+)
1266 3:37:32 / 3:36:05 Baldut Pablo M (+)
1267 3:37:32 / 3:35:34 Nunes Frank M (+)
1268 3:37:32 / 3:36:46 Soto Dina F (+)
1269 3:37:33 / 3:36:23 Vazquez Sebastian Heral M (+)
1270 3:37:34 / 3:37:19 Figueiredo Daniel M (+)
1271 3:37:35 / 3:35:53 Sanchez Negrette Guillermo Mart? M (+)
1272 3:37:36 / 3:37:23 Cardenas Juan Dario M (+)
1273 3:37:36 / 3:36:03 Batistelli Favio Angel M (+)
1274 3:37:36 / 3:36:02 Keller Danielle F (+)
1275 3:37:39 / 3:37:27 Ribeiro Natiele F (+)
1276 3:37:40 / 3:36:16 Ortiz Federico M (+)
1277 3:37:41 / 3:35:34 Navello Pablo M (+)
1278 3:37:45 / 3:36:34 Suarez Eusa Maria Soledad F (+)
1279 3:37:46 / 3:37:05 Vasconcelos Braga Bruno M (+)
1280 3:37:49 / 3:34:31 Bergese Diego Juan M (+)
1281 3:37:54 / 3:37:05 Rotondo Ernesto M (+)
1282 3:37:54 / 3:36:00 Moreno Marcelo Adrian M (+)
1283 3:37:57 / 3:34:17 Aguado Guillermo Sebas M (+)
1284 3:37:57 / 3:36:26 Batalla Emanuel M (+)
1285 3:37:59 / 3:35:30 Variane Thiago M (+)
1286 3:38:00 / 3:37:19 Florez Demian Roberto M (+)
1287 3:38:03 / 3:36:48 Paredes Elvio Daniel M (+)
1288 3:38:03 / 3:37:45 Saffre Hernan M (+)
1289 3:38:05 / 3:37:35 Valdez Pablo Francisco M (+)
1290 3:38:06 / 3:36:39 Sanchez Martin Daniel M (+)
1291 3:38:07 / 3:36:19 Farina Gustavo Joaquin M (+)
1292 3:38:08 / 3:35:13 Apaza Diego Alexander M (+)
1293 3:38:11 / 3:36:40 Zafra Sergio M (+)
1294 3:38:11 / 3:36:38 Lacovara Maria Sol F (+)
1295 3:38:13 / 3:38:04 Magagnini Gustavo M (+)
1296 3:38:19 / 3:36:53 Mecca Hugo Maximilian M (+)
1297 3:38:19 / 3:37:16 Toledo Errandonea Sergio M (+)
1298 3:38:19 / 3:33:47 Baldoma German M (+)
1299 3:38:20 / 3:35:39 Carrizo Luis Antonio M (+)
1300 3:38:21 / 3:37:08 Musulin Martin M (+)
1301 3:38:24 / 3:37:48 Grassi Nicolas M (+)
1302 3:38:25 / 3:37:46 Domingos Cesar M (+)
1303 3:38:25 / 3:37:47 Cornejo Martinez Javier Enrique M (+)
1304 3:38:26 / 3:37:32 Gengo Alessandro M (+)
1305 3:38:28 / 3:38:28 Truffa Horacio Ruben M (+)
1306 3:38:28 / 3:35:05 Gini Santiago M (+)
1307 3:38:28 / 3:37:26 Chavez Sarmiento Diego German M (+)
1308 3:38:28 / 3:32:32 Halling Gustav M (+)
1309 3:38:29 / 3:36:45 Aguilera Luciano M (+)
1310 3:38:30 / 3:37:58 Moura Ricardo Juliano M (+)
1311 3:38:31 / 3:37:32 Carcovich Omar M (+)
1312 3:38:31 / 3:37:19 Garcia Alejandro Emanu M (+)
1313 3:38:31 / 3:36:32 Silva Robison Magno M (+)
1314 3:38:34 / 3:34:33 Ferreira Guilherme Levy M (+)
1315 3:38:35 / 3:38:23 Diaz Hector M (+)
1316 3:38:36 / 3:38:25 Benitez Marcos M (+)
1317 3:38:37 / 3:37:37 Michelini Leonel M (+)
1318 3:38:39 / 3:36:40 Minvielle Gervasio M (+)
1319 3:38:41 / 3:38:03 Coronel Caniza Belen Guadalupe F (+)
1320 3:38:44 / 3:38:34 Godoy Gustavo Nestor M (+)
1321 3:38:45 / 3:37:30 Cubillo Navarro Julio Cesar M (+)
1322 3:38:45 / 3:38:35 Vidal Aldana Florenci F (+)
1323 3:38:46 / 3:38:34 Gomez Edgar Waldo M (+)
1324 3:38:47 / 3:36:34 Movschowitz George M (+)
1325 3:38:49 / 3:36:41 Vidal Alexandre M (+)
1326 3:38:51 / 3:30:22 Palavecino Carlos M (+)
1327 3:38:51 / 3:38:12 Marchena Diego M (+)
1328 3:38:53 / 3:38:10 Marques Antunes Andre Lisio M (+)
1329 3:38:55 / 3:31:56 Davies Sergio Eduardo M (+)
1330 3:38:59 / 3:38:47 Pietroni Milbana F (+)
1331 3:38:59 / 3:38:17 Iuliano Alberto M (+)
1332 3:38:59 / 3:37:35 Flom Hernan M (+)
1333 3:39:00 / 3:33:50 Paula De Santana Edgar M (+)
1334 3:39:00 / 3:38:00 Guckenheimer Sebastian Ariel M (+)
1335 3:39:01 / 3:37:59 Jang Seh Wook M (+)
1336 3:39:01 / 3:38:02 Temperini Mariano M (+)
1337 3:39:01 / 3:35:33 Tomazi Leme Karina F (+)
1338 3:39:05 / 3:38:18 Mascheroni Guillermo M (+)
1339 3:39:06 / 3:36:56 Geymonat Federico M (+)
1340 3:39:07 / 3:37:43 Rodriguez Jimenez Oscar M (+)
1341 3:39:07 / 3:36:30 Turini Bruno M (+)
1342 3:39:09 / 3:39:00 Guarino Dario M (+)
1343 3:39:10 / 3:37:47 Aguirre Cristian David M (+)
1344 3:39:10 / 3:38:23 Orrequia Cynthia Sabrina F (+)
1345 3:39:10 / 3:38:19 Saavedra Eduardo M (+)
1346 3:39:11 / 3:36:17 Catalan Castro Carolina F (+)
1347 3:39:12 / 3:38:42 Tondini Raul M (+)
1348 3:39:16 / 3:38:20 Vistarop Marcos Raul M (+)
1349 3:39:17 / 3:38:36 Lamas Gonzalo M (+)
1350 3:39:17 / 3:37:20 Rodriguez Diego Ignacio M (+)
1351 3:39:17 / 3:39:01 Zalazar Francisco M (+)
1352 3:39:20 / 3:37:19 Braga William Cesar M (+)
1353 3:39:24 / 3:38:48 Coelho Cesar Augusto S M (+)
1354 3:39:26 / 3:37:56 Marzio Maximilinao And M (+)
1355 3:39:27 / 3:38:23 Gonzalez Federico M (+)
1356 3:39:29 / 3:38:37 Fernandez Diego German M (+)
1357 3:39:31 / 3:38:35 Villarreal Martin Eduardo M (+)
1358 3:39:31 / 3:36:08 Castillo Guijo Manuel M (+)
1359 3:39:34 / 3:37:00 Barbieri Rodrigo M (+)
1360 3:39:34 / 3:39:22 Medina Carlos Anibal M (+)
1361 3:39:35 / 3:39:02 Iturbe Abel Raul M (+)
1362 3:39:35 / 3:37:35 Ferrari Asdrubal M (+)
1363 3:39:36 / 3:39:36 Gambino Maria Belen F (+)
1364 3:39:38 / 3:38:59 Solanas Luis Daniel M (+)
1365 3:39:38 / 3:38:03 Guidetto Sebastian M (+)
1366 3:39:38 / 3:38:31 Jauregui Olaya F (+)
1367 3:39:38 / 3:38:15 Caputo Sergio M (+)
1368 3:39:39 / 3:39:33 Diaz Adrian M (+)
1369 3:39:40 / 3:38:58 Peralta Sabrina Belen F (+)
1370 3:39:40 / 3:38:59 Bastianon Ricardo M (+)
1371 3:39:41 / 3:39:02 Gorfinkiel Juan Matias M (+)
1372 3:39:43 / 3:38:47 Humeres Hector M (+)
1373 3:39:43 / 3:39:31 Maier Eduardo Hugo M (+)
1374 3:39:45 / 3:38:31 Velazquez Leonardo M (+)
1375 3:39:47 / 3:39:33 Lopez Carlos Alberto M (+)
1376 3:39:47 / 3:38:32 Olha Walter M (+)
1377 3:39:48 / 3:39:17 Da Silva Paulo M (+)
1378 3:39:49 / 3:38:13 Passos Tayana F (+)
1379 3:39:53 / 3:38:36 Ricci Leonardo M (+)
1380 3:39:53 / 3:38:22 Oyarce Oscar M (+)
1381 3:39:53 / 3:39:43 Guantay Cesar Alberto M (+)
1382 3:39:54 / 3:38:46 Philpotts Lucas M (+)
1383 3:39:56 / 3:24:43 Fuentes Sergio Manuel M (+)
1384 3:39:56 / 3:37:21 Costa Claudio Sergio M (+)
1385 3:39:57 / 3:39:00 Gallego Dario M (+)
1386 3:39:58 / 3:39:36 Gaute Sebastian M (+)
1387 3:39:59 / 3:37:13 Finelli Fabio M (+)
1388 3:40:00 / 3:38:24 Ozeas Ozeas Correia D M (+)
1389 3:40:00 / 3:36:26 Alarcon Raul M (+)
1390 3:40:01 / 3:36:00 Morandi Adrian M (+)
1391 3:40:02 / 3:39:06 Vascao Junior Eglair M (+)
1392 3:40:02 / 3:38:34 Sangiorgio Carlos M (+)
1393 3:40:04 / 3:37:38 Svirsky Laura F (+)
1394 3:40:04 / 3:35:59 Nogueira Santiago M (+)
1395 3:40:05 / 3:37:32 Guerra Richard M (+)
1396 3:40:08 / 3:38:36 Cerri Lucas M (+)
1397 3:40:09 / 3:38:26 Martin Marcelo Alejand M (+)
1398 3:40:11 / 3:38:39 Mendes Alan M (+)
1399 3:40:12 / 3:38:55 Silvestre Pablo M (+)
1400 3:40:15 / 3:38:26 Gonzalez Mintrone Tomas M (+)
1401 3:40:16 / 3:37:56 Scapula Juan Martin M (+)
1402 3:40:17 / 3:37:54 Kulita Monica F (+)
1403 3:40:18 / 3:39:22 Jesa Veronica F (+)
1404 3:40:19 / 3:40:10 Sachse Herman M (+)
1405 3:40:19 / 3:38:16 Bertachini Moyano Diego M (+)
1406 3:40:20 / 3:37:05 Doro Lompa Aldo M (+)
1407 3:40:21 / 3:39:06 Gateno Fernando M (+)
1408 3:40:21 / 3:38:31 Larocca Sebastian M (+)
1409 3:40:21 / 3:39:09 Ruiz Jorge Fabian M (+)
1410 3:40:25 / 3:39:58 Leiva Walter M (+)
1411 3:40:25 / 3:38:43 Rios Elizalde Javier M (+)
1412 3:40:26 / 3:38:30 Donoso Stegen Matias M (+)
1413 3:40:36 / 3:39:06 Sanchez Sanchez Sergio Ivan M (+)
1414 3:40:36 / 3:38:26 Carballo Maidana Juan Ignacio M (+)
1415 3:40:38 / 3:39:53 De La Via Levy Juan Carlos M (+)
1416 3:40:39 / 3:39:57 Almada German Pablo M (+)
1417 3:40:43 / 3:38:44 Estrada Obregon Eduardo M (+)
1418 3:40:45 / 3:40:01 Lopez Miguel Sebastia M (+)
1419 3:40:49 / 3:40:24 Ribeiro Marcelo M (+)
1420 3:40:49 / 3:40:32 Bonelli Laura F (+)
1421 3:40:49 / 3:40:13 Ciancio Sebastian M (+)
1422 3:40:50 / 3:40:33 Lopez Horacio Rodolfo M (+)
1423 3:40:51 / 3:39:52 Martinez Lorena Alejandr F (+)
1424 3:40:51 / 3:40:04 Schimmele Jonas M (+)
1425 3:40:52 / 3:39:24 Silva Alexandre M (+)
1426 3:40:53 / 3:39:54 Carcovich Mirko M (+)
1427 3:40:56 / 3:39:19 Mendonca Filho Joarez M (+)
1428 3:40:57 / 3:37:41 Tsaruk Evgenii M (+)
1429 3:40:59 / 3:39:32 Isotton Ramiro M (+)
1430 3:40:59 / 3:40:13 Sabat Ariel Nicolas M (+)
1431 3:40:59 / 3:40:13 Rodin Daniel M (+)
1432 3:41:02 / 3:39:16 Knudsen Federico Martin M (+)
1433 3:41:02 / 3:39:41 Valle Germano M (+)
1434 3:41:05 / 3:39:43 Pairola Gaston M (+)
1435 3:41:07 / 3:40:10 Altamirano Roger Alejandro M (+)
1436 3:41:07 / 3:38:16 Rivera Guevara Maria Gabriela F (+)
1437 3:41:08 / 3:39:13 Gomez Javier Alejandr M (+)
1438 3:41:09 / 3:40:55 Condezo Atencia Aquiles M (+)
1439 3:41:09 / 3:37:01 Longo Cesar Augusto M (+)
1440 3:41:11 / 3:37:56 Arevalo Emmanuel M (+)
1441 3:41:13 / 3:39:17 Sarco Fernando Esteba M (+)
1442 3:41:13 / 3:39:25 Toth Matias M (+)
1443 3:41:18 / 3:40:38 Prado Ignacio M (+)
1444 3:41:20 / 3:39:20 Anchano Sebastian M (+)
1445 3:41:22 / 3:40:27 Pizarro Daniela F (+)
1446 3:41:25 / 3:39:56 Lirussi Schiffo Leandro M (+)
1447 3:41:26 / 3:39:51 Arce Ricardo M (+)
1448 3:41:26 / 3:37:29 Otero Beltram Facundo M (+)
1449 3:41:27 / 3:40:53 Cabrera Maria Noel F (+)
1450 3:41:28 / 3:40:36 Guimaraes Gobbo Nathalya F (+)
1451 3:41:30 / 3:40:08 Bartling Robin M (+)
1452 3:41:30 / 3:39:46 Soubeste Nicolas M (+)
1453 3:41:31 / 3:41:23 Leroyer Ariel M (+)
1454 3:41:31 / 3:40:43 Marcattini Gustavo Humbert M (+)
1455 3:41:32 / 3:40:07 Quinteros Julio M (+)
1456 3:41:36 / 3:41:20 Storto Claudio M (+)
1457 3:41:38 / 3:39:54 Beltran Gustavo Eduardo M (+)
1458 3:41:38 / 3:41:21 Martinez Rocio F (+)
1459 3:41:41 / 3:41:09 Romero Francisco Gabri M (+)
1460 3:41:42 / 3:39:53 Fonseca Gustavo M (+)
1461 3:41:42 / 3:40:23 De Antoni Oscar Stefano M (+)
1462 3:41:42 / 3:40:24 Zaccara Carlos Hugo M (+)
1463 3:41:42 / 3:39:24 Blanco Sergio M (+)
1464 3:41:43 / 3:41:33 Sohm Guillermo M (+)
1465 3:41:45 / 3:41:40 Wenca Hugo Alberto M (+)
1466 3:41:47 / 3:40:19 Aguilar Aida F (+)
1467 3:41:47 / 3:40:51 Chirino Guillermo M (+)
1468 3:41:48 / 3:39:58 Villa Augusto Nicolas M (+)
1469 3:41:48 / 3:39:00 Uriona Marcelo Javier M (+)
1470 3:41:48 / 3:39:55 Rodriguez Viviana Claudia F (+)
1471 3:41:49 / 3:39:51 Benedetti Celeste F (+)
1472 3:41:50 / 3:40:29 Osella Carlos M (+)
1473 3:41:52 / 3:41:16 Montivero Domingo Antonio M (+)
1474 3:41:52 / 3:41:05 Horminoguez Adrian M (+)
1475 3:41:52 / 3:40:11 Balletto Facundo Gabriel M (+)
1476 3:41:52 / 3:40:52 Malewicz Dan Jonas M (+)
1477 3:41:54 / 3:41:13 Caceres Miguel Ezequiel M (+)
1478 3:41:55 / 3:41:21 Montano Guzman M (+)
1479 3:41:56 / 3:40:00 Franzutti Daniel Alberto M (+)
1480 3:41:56 / 3:41:25 Jimenez Aguilar Jonas M (+)
1481 3:42:00 / 3:41:27 Vinay Micaela F (+)
1482 3:42:02 / 3:39:44 Martinelli Victor Leonardo M (+)
1483 3:42:08 / 3:40:06 Dias Lucena Sevaroll Leonardo M (+)
1484 3:42:08 / 3:40:35 Carrillo Asis Francisco Javie M (+)
1485 3:42:08 / 3:39:56 Alfredo Amanda Delfino F (+)
1486 3:42:09 / 3:40:08 Nino Victor M (+)
1487 3:42:11 / 3:41:34 Valdez Diego Gaston M (+)
1488 3:42:13 / 3:41:07 Boccanera David M (+)
1489 3:42:13 / 3:40:43 Schumansky Diego M (+)
1490 3:42:14 / 3:40:23 Tobia Lorena F (+)
1491 3:42:16 / 3:42:00 Carabajal Sebastian M (+)
1492 3:42:16 / 3:39:34 Diaz Telli Federico M (+)
1493 3:42:17 / 3:41:51 Pinsky Daniel M (+)
1494 3:42:20 / 3:40:30 Inafuku Fernando M (+)
1495 3:42:20 / 3:41:31 Leyva Gonzalo M (+)
1496 3:42:21 / 3:42:03 Fel Leonardo M (+)
1497 3:42:21 / 3:40:07 Galvez Veronica Jimena F (+)
1498 3:42:26 / 3:41:33 Canciani Sergio M (+)
1499 3:42:26 / 3:40:45 Leoz Maria Cecilia F (+)
1500 3:42:29 / 3:38:43 Gomez Carlos Eduardo M (+)
1501 3:42:30 / 3:41:30 Maillo Rafael M (+)
1502 3:42:33 / 3:41:26 Pedraza Diego M (+)
1503 3:42:35 / 3:42:10 Elua Juan Francisco M (+)
1504 3:42:35 / 3:40:35 Caamano Lucas M (+)
1505 3:42:36 / 3:40:35 Caamano Jeremias M (+)
1506 3:42:36 / 3:40:36 Caamano Bruno M (+)
1507 3:42:36 / 3:40:21 Guaranho De Moraes Pedro Claudio M (+)
1508 3:42:36 / 3:42:07 Berretta Fernando Daniel M (+)
1509 3:42:37 / 3:40:46 Uehara Gustavo M (+)
1510 3:42:38 / 3:40:42 Garcia Adrian M (+)
1511 3:42:38 / 3:42:10 Zirilli Diego M (+)
1512 3:42:40 / 3:42:00 Miyauchi Ernesto M (+)
1513 3:42:41 / 3:41:02 Mendez Anibal M (+)
1514 3:42:42 / 3:41:19 Fernandez Javier M (+)
1515 3:42:43 / 3:40:32 Galvao Mauricio M (+)
1516 3:42:43 / 3:42:30 Almada Nelson Esteban M (+)
1517 3:42:45 / 3:42:04 Borlle Mariana F (+)
1518 3:42:45 / 3:40:50 Sobrecasas Pablo M (+)
1519 3:42:46 / 3:39:20 Mingorance De Souza Flavio M (+)
1520 3:42:46 / 3:38:44 Bressan Buosi Tiago Augusto M (+)
1521 3:42:50 / 3:40:23 Madrid Rodrigo H M (+)
1522 3:42:52 / 3:40:54 Hernandez Gabriel Pablo M (+)
1523 3:42:52 / 3:42:27 Lima Marcos M (+)
1524 3:42:53 / 3:41:15 Casco Ezequiel M (+)
1525 3:42:56 / 3:41:20 Luduena Eduardo M (+)
1526 3:42:56 / 3:41:06 Godoy Pablo Antonio M (+)
1527 3:42:56 / 3:41:06 Gonzalez Baliani Damian M (+)
1528 3:42:57 / 3:41:53 Abucet Yamil Cesar M (+)
1529 3:42:57 / 3:41:57 Rube Pablo Emilio M (+)
1530 3:42:58 / 3:38:21 Prata Gustavo M (+)
1531 3:42:59 / 3:37:39 Appiolaza Javier Alejandr M (+)
1532 3:42:59 / 3:42:41 Lazzari Flavio L M (+)
1533 3:42:59 / 3:38:56 Candido Torres Jose Neto M (+)
1534 3:43:00 / 3:41:57 Faulkner Cristian Andres M (+)
1535 3:43:00 / 3:41:56 Attoresi Franco Ivan M (+)
1536 3:43:01 / 3:41:42 Bazan Luis Salvador M (+)
1537 3:43:03 / 3:41:59 Julian Matias Nicolas M (+)
1538 3:43:04 / 3:42:14 Diez Horacio M (+)
1539 3:43:04 / 3:41:42 Moreira De Lacerda Dennis Augusto M (+)
1540 3:43:04 / 3:41:13 Hinrichsen Ilse F (+)
1541 3:43:04 / 3:39:42 Blanco Marina Soledad F (+)
1542 3:43:06 / 3:41:25 Vazquez Mariana Belen F (+)
1543 3:43:09 / 3:41:53 Olivera Mauricio M (+)
1544 3:43:10 / 3:41:31 Gonzalez Fernandez Diego M (+)
1545 3:43:12 / 3:42:25 Rodriguez Zavalegui Hernan Ariel M (+)
1546 3:43:13 / 3:40:54 Foglia Rodolfo Horacio M (+)
1547 3:43:14 / 3:39:04 Rosito Gabriel M (+)
1548 3:43:19 / 3:41:55 Lopez Ricardo Manuel M (+)
1549 3:43:21 / 3:43:01 Espinosa Gabriel Horacio M (+)
1550 3:43:22 / 3:41:56 Medina Diego Andres M (+)
1551 3:43:24 / 3:41:35 Renna Christian M (+)
1552 3:43:24 / 3:42:15 Alva Grimaldi Luciano M (+)
1553 3:43:25 / 3:42:48 Costa Raffael Mesquit M (+)
1554 3:43:26 / 3:40:16 Mattiazzi Juan Pablo M (+)
1555 3:43:30 / 3:41:22 Tilve Adrian M (+)
1556 3:43:31 / 3:41:30 Miranda Maite F (+)
1557 3:43:32 / 3:37:37 Zuccolo Juan Manuel M (+)
1558 3:43:33 / 3:43:08 Martins Tiliana F (+)
1559 3:43:34 / 3:40:59 Moreno Mariano M (+)
1560 3:43:35 / 3:43:13 Marucci Roger M (+)
1561 3:43:36 / 3:41:47 Renna Flavio Daniel M (+)
1562 3:43:36 / 3:40:53 Cancinos Javier M (+)
1563 3:43:37 / 3:43:11 Polizzo Facundo M (+)
1564 3:43:38 / 3:41:13 Milani Pedro Luis M (+)
1565 3:43:38 / 3:40:08 Vierci Gustavo Gabriel M (+)
1566 3:43:39 / 3:40:46 Gianolla Gabriel De Paul M (+)
1567 3:43:40 / 3:43:22 Barea Daniel M (+)
1568 3:43:41 / 3:41:45 Casale Pablo Daniel M (+)
1569 3:43:42 / 3:42:06 Carvallo Matias M (+)
1570 3:43:44 / 3:41:05 Leoni Nicolas M (+)
1571 3:43:45 / 3:38:22 Santos Ivete F (+)
1572 3:43:46 / 3:41:21 Amador Ricardo M (+)
1573 3:43:46 / 3:41:59 Campos Matias M (+)
1574 3:43:48 / 3:41:38 Bonomi Junior Sergio Aparecid M (+)
1575 3:43:49 / 3:41:16 Ruiz Caballero Carlos Alberto M (+)
1576 3:43:49 / 3:41:18 Gutierrez Damian Eduardo M (+)
1577 3:43:50 / 3:39:59 Cochella Agustin M (+)
1578 3:43:56 / 3:42:16 Keuylian Adriana F (+)
1579 3:44:01 / 3:42:44 Gagliardo Matias M (+)
1580 3:44:02 / 3:42:50 Dominguez Daniel Alfredo M (+)
1581 3:44:03 / 3:43:17 Ocampo Juan M (+)
1582 3:44:06 / 3:43:53 Parra Jorge M (+)
1583 3:44:09 / 3:43:20 Arellano Marcelo M (+)
1584 3:44:10 / 3:42:50 Zambellini Alejandro Luis M (+)
1585 3:44:11 / 3:44:11 Colom Francisco M (+)
1586 3:44:13 / 3:42:08 Olgiati Mariano M (+)
1587 3:44:14 / 3:41:54 Forlenza Marcelo Daniel M (+)
1588 3:44:14 / 3:43:33 Busso Mariano Jorge M (+)
1589 3:44:15 / 3:43:41 Bustos Nagel Guillermo M (+)
1590 3:44:16 / 3:41:36 Patrocinio Daniel Moreira M (+)
1591 3:44:17 / 3:42:58 Gimenez Alvaro Javier M (+)
1592 3:44:18 / 3:44:08 Merlos Claudio M (+)
1593 3:44:18 / 3:42:25 De Albuquerque Costa Eduardo M (+)
1594 3:44:20 / 3:42:26 Pozo Rodolfo M (+)
1595 3:44:21 / 3:41:27 Buchet Raul Angel M (+)
1596 3:44:22 / 3:44:01 Santos Joelson M (+)
1597 3:44:24 / 3:41:12 Badilla Mendez Juan Manuel M (+)
1598 3:44:24 / 3:43:09 Tiago Tiago Silva Roc M (+)
1599 3:44:25 / 3:43:01 Ciranna Salvador M (+)
1600 3:44:28 / 3:42:42 Arce Sergio Horacio M (+)
1601 3:44:30 / 3:44:04 Echeverria Ricardo M (+)
1602 3:44:31 / 3:44:20 Vazquez Maria Salome F (+)
1603 3:44:32 / 3:43:19 Martinez Pirola Mariano Javier M (+)
1604 3:44:34 / 3:43:10 Franco Cristian M (+)
1605 3:44:34 / 3:44:05 Vianco Fernando M (+)
1606 3:44:34 / 3:42:20 Peyloubet Mateo M (+)
1607 3:44:35 / 3:41:15 Tarifa Gabriel M (+)
1608 3:44:35 / 3:41:51 Masotti Nicolas Alejand M (+)
1609 3:44:39 / 3:43:51 De Araujo Batista Yves M (+)
1610 3:44:39 / 3:43:18 Giannattasio Pablo Adrian M (+)
1611 3:44:40 / 3:41:03 Spataro Flavia Natali F (+)
1612 3:44:40 / 3:43:13 Cuffia Marcelo M (+)
1613 3:44:45 / 3:44:04 Vidal Jorge Luis M (+)
1614 3:44:45 / 3:44:05 Leone Andres M (+)
1615 3:44:45 / 3:39:41 Brahim Emanuel M (+)
1616 3:44:47 / 3:42:23 Farias Edson M (+)
1617 3:44:47 / 3:43:11 Gois Carlos Rodolfo M (+)
1618 3:44:47 / 3:44:15 Piva Lourdes F (+)
1619 3:44:49 / 3:43:28 Sa Odara F (+)
1620 3:44:51 / 3:42:29 Arredondo Lucas M (+)
1621 3:44:52 / 3:43:09 Veronesi Jorgelina F (+)
1622 3:44:55 / 3:38:47 Alem Julio Hector M (+)
1623 3:44:56 / 3:44:23 De Oliveira Mattos Pedro Ricardo M (+)
1624 3:44:57 / 3:44:00 Uribe Mariano Sebasti M (+)
1625 3:44:57 / 3:43:08 Reyna Mario Martin M (+)
1626 3:44:59 / 3:43:34 Dura Daniel M (+)
1627 3:45:00 / 3:44:53 Drago Hernan Mariano M (+)
1628 3:45:01 / 3:44:22 Constenla Javier Adrian M (+)
1629 3:45:02 / 3:44:04 Bergamasco Gabriel M (+)
1630 3:45:04 / 3:42:10 Orjales Pablo Diego M (+)
1631 3:45:04 / 3:42:45 Bonelli Horacio Agustin M (+)
1632 3:45:05 / 3:43:43 Salomon Pablo M (+)
1633 3:45:07 / 3:43:03 Cuneo Facundo M (+)
1634 3:45:08 / 3:43:01 Nadal Jose Miguel M (+)
1635 3:45:09 / 3:44:24 Gonzalez Choperena Luis Javier M (+)
1636 3:45:09 / 3:44:06 Romero Luis Enrique M (+)
1637 3:45:10 / 3:44:43 Himmelstein Ari M (+)
1638 3:45:13 / 3:44:52 Medina Claudio Hugo M (+)
1639 3:45:15 / 3:43:48 Arietti Rodrigo Ariel M (+)
1640 3:45:17 / 3:43:15 Bevacqua Bruno M (+)
1641 3:45:18 / 3:43:55 Mitre Jose Jacobo M (+)
1642 3:45:19 / 3:44:28 Fernandez Oscar Ernesto M (+)
1643 3:45:19 / 3:43:01 Casado De Achaval Carlos Pedro M (+)
1644 3:45:23 / 3:42:08 Bracamonte Marcelo Gustavo M (+)
1645 3:45:25 / 3:44:29 Nicacio Eleandro M (+)
1646 3:45:28 / 3:44:47 Lucas Daniel Leonardo M (+)
1647 3:45:29 / 3:44:44 Gonzalez Juan Ignacio M (+)
1648 3:45:32 / 3:45:10 Ocampos Antonio Hernan M (+)
1649 3:45:34 / 3:40:10 Gargiulo Celeste F (+)
1650 3:45:35 / 3:45:15 Savio Juan Manuel M (+)
1651 3:45:36 / 3:43:09 Monzon Leonardo Agusti M (+)
1652 3:45:38 / 3:43:57 Troncoso Fernando M (+)
1653 3:45:38 / 3:44:50 Valentini Mariela Romina F (+)
1654 3:45:41 / 3:45:21 De Araujo Jorge Alejandro M (+)
1655 3:45:41 / 3:44:22 Oser Fabian M (+)
1656 3:45:42 / 3:40:52 Breczicki Jose M (+)
1657 3:45:43 / 3:43:16 Acosta Daniel M (+)
1658 3:45:44 / 3:44:36 Burgos Ortiz Jaime M (+)
1659 3:45:45 / 3:45:33 Bacot Alejandro M (+)
1660 3:45:47 / 3:44:29 Soria Eduardo Marcelo M (+)
1661 3:45:48 / 3:44:18 Casanova Juan Manuel M (+)
1662 3:45:48 / 3:44:29 Gomez Romeo Maria Jimena F (+)
1663 3:45:49 / 3:44:35 De Noia Mauricio M (+)
1664 3:45:51 / 3:44:30 Chappelle Gregor M (+)
1665 3:45:52 / 3:44:32 Landry Ignacio M (+)
1666 3:45:53 / 3:45:32 Leal Esteban M (+)
1667 3:45:54 / 3:43:59 Humeniuk Sergio M (+)
1668 3:45:54 / 3:41:29 Duran Francisco M (+)
1669 3:45:57 / 3:45:17 Beccar Varela Eugenio M (+)
1670 3:45:57 / 3:43:57 Coronel O. Javier M (+)
1671 3:45:59 / 3:44:17 Marini Agustin Cesar M (+)
1672 3:46:00 / 3:45:26 Ferraz Ambrosio Paulo Sergio M (+)
1673 3:46:01 / 3:42:22 Barraza Igarzabal Al Rodrigo Javier M (+)
1674 3:46:01 / 3:44:44 Bianchi Leandro M (+)
1675 3:46:05 / 3:43:27 Namihas Forero Jose Eduardo M (+)
1676 3:46:07 / 3:44:14 Rodriguez Cesar M (+)
1677 3:46:07 / 3:43:35 Prozzillo Gabriel M (+)
1678 3:46:08 / 3:43:50 Bogea Carla F (+)
1679 3:46:09 / 3:45:37 Zabala De Boyer Jorge Daniel M (+)
1680 3:46:10 / 3:43:45 Sette Lazarini Marla F (+)
1681 3:46:12 / 3:45:45 Reston Diego Nicolas M (+)
1682 3:46:13 / 3:45:15 Huijser Daniel M (+)
1683 3:46:15 / 3:45:03 Rodriguez Grau Daniel Jorge M (+)
1684 3:46:15 / 3:45:03 Merino Catalina F (+)
1685 3:46:16 / 3:42:33 Butler Agustin M (+)
1686 3:46:18 / 3:45:40 Ruiz Nelson Adolfo R M (+)
1687 3:46:19 / 3:43:56 Hagman Gabriel Hernan M (+)
1688 3:46:19 / 3:44:12 Gurruchaga Humberto Alejan M (+)
1689 3:46:19 / 3:44:50 Barone Lorenzo M (+)
1690 3:46:20 / 3:44:06 Enrique Sergio Oscar M (+)
1691 3:46:20 / 3:46:02 Giusti Florencia F (+)
1692 3:46:23 / 3:44:50 Junquera Pablo M (+)
1693 3:46:24 / 3:45:13 Moreira Orlando Javier M (+)
1694 3:46:26 / 3:45:59 Tres Felipe Do Prado M (+)
1695 3:46:26 / 3:44:26 Bigliardi Esteban M (+)
1696 3:46:27 / 3:44:28 Danussi Jorge Anibal M (+)
1697 3:46:29 / 3:44:28 Caldas Antonio Josivam M (+)
1698 3:46:31 / 3:43:12 Pereira Gustavo Inacio M (+)
1699 3:46:32 / 3:43:58 Luzzi Agustin Andres M (+)
1700 3:46:36 / 3:44:00 Queyroux Nicolas M (+)
1701 3:46:38 / 3:45:08 Guarnieri Lorenzo M (+)
1702 3:46:41 / 3:45:14 Whately Ricardo M (+)
1703 3:46:44 / 3:46:25 Terrera Diego M (+)
1704 3:46:46 / 3:39:51 Di Marco Juan Domingo M (+)
1705 3:46:49 / 3:46:17 Gonzalez Guido M (+)
1706 3:46:49 / 3:46:25 Guimaraes De Castro Luiz Humberto M (+)
1707 3:46:51 / 3:44:42 Medrano Martin Rodrigo M (+)
1708 3:46:54 / 3:43:05 Murinigo Alfio M (+)
1709 3:46:54 / 3:43:59 Moraes De Araujo Gon Mauro M (+)
1710 3:46:57 / 3:45:19 Afonso Filho Antonio M (+)
1711 3:47:00 / 3:45:15 Arias Sofia F (+)
1712 3:47:00 / 3:44:55 Kathrein Carlos M (+)
1713 3:47:01 / 3:46:23 Garay Ponce Carlos M (+)
1714 3:47:02 / 3:43:01 Barreto Silvestre Vicen M (+)
1715 3:47:04 / 3:42:33 Ponce Carra Pablo Ariel M (+)
1716 3:47:06 / 3:45:38 Otal Cristian Javier M (+)
1717 3:47:06 / 3:44:36 Sousa Sebastiao M (+)
1718 3:47:07 / 3:43:34 Valentini Adrian Eduardo M (+)
1719 3:47:08 / 3:43:04 Santina Henrique M (+)
1720 3:47:08 / 3:44:56 Gomez Ezequiel Matias M (+)
1721 3:47:09 / 3:46:24 Houtenbos Rob M (+)
1722 3:47:09 / 3:45:12 Dolera Jaime Lisandro M (+)
1723 3:47:13 / 3:42:04 Diciano Hector Ezequiel M (+)
1724 3:47:13 / 3:45:27 Albornoz Romina F (+)
1725 3:47:14 / 3:46:22 Raich Andrew M (+)
1726 3:47:14 / 3:46:59 Araiz Emiliano M (+)
1727 3:47:15 / 3:44:21 Baquero Sebastian M (+)
1728 3:47:15 / 3:45:59 Calleja Francisco M (+)
1729 3:47:16 / 3:46:53 Silva Jeane F (+)
1730 3:47:21 / 3:43:16 Peralta Pablo M (+)
1731 3:47:21 / 3:46:53 Piani Leila Aparecida F (+)
1732 3:47:25 / 3:44:59 Guzman Nahuel M (+)
1733 3:47:27 / 3:46:03 Abdelghani Mohamed M (+)
1734 3:47:28 / 3:46:39 Merletti Mariano M (+)
1735 3:47:31 / 3:45:23 Manzione Leandro Sebasti M (+)
1736 3:47:33 / 3:45:20 Marchionno Franco M (+)
1737 3:47:35 / 3:45:55 Aguirre Juan Jose M (+)
1738 3:47:36 / 3:44:16 Harispe Juan M (+)
1739 3:47:36 / 3:46:56 De Oliveira MacIel Pedro Henrique M (+)
1740 3:47:37 / 3:46:06 Occhiuzzi Augusto M (+)
1741 3:47:39 / 3:47:31 Lopez Lucas Ignacio M (+)
1742 3:47:40 / 3:46:49 Baez Hernan M (+)
1743 3:47:40 / 3:45:24 Fontenla Florencia F (+)
1744 3:47:41 / 3:44:51 Couto Renan M (+)
1745 3:47:42 / 3:46:37 Frois Gabriel M (+)
1746 3:47:43 / 3:46:23 Costa Cassiana F (+)
1747 3:47:46 / 3:47:09 Perez Gustavo M (+)
1748 3:47:46 / 3:45:16 Silvestrini Mariano M (+)
1749 3:47:46 / 3:44:04 Becker Graciela F (+)
1750 3:47:47 / 3:47:13 Garelli Andres M (+)
1751 3:47:48 / 3:46:11 Bacarini Juan Manuel M (+)
1752 3:47:48 / 3:47:18 Sosa Samuel M (+)
1753 3:47:50 / 3:42:09 Scoglia Romina F (+)
1754 3:47:51 / 3:45:11 Tamarit Juan Pablo M (+)
1755 3:47:52 / 3:47:30 Miraille Daniel M (+)
1756 3:47:52 / 3:42:58 Cardenez Walter M (+)
1757 3:47:53 / 3:47:09 Storti Heraldo M (+)
1758 3:47:53 / 3:43:23 Guzman Jose Roberto M (+)
1759 3:47:54 / 3:46:56 Rodrigues Nicolas M (+)
1760 3:47:54 / 3:46:57 Dias Welber M (+)
1761 3:47:55 / 3:45:49 Cravero Eugenio M (+)
1762 3:47:55 / 3:47:36 Alegre Walter Nicolas M (+)
1763 3:47:55 / 3:47:10 Chioma David M (+)
1764 3:47:56 / 3:46:38 Aranda Marcos M (+)
1765 3:47:56 / 3:47:40 Gomez Hernan Andres M (+)
1766 3:47:58 / 3:43:31 Orozco Jesus Miguel M (+)
1767 3:47:58 / 3:44:45 Mendoza Silvio Ariel M (+)
1768 3:48:00 / 3:45:02 Boxler Mario Isaias M (+)
1769 3:48:04 / 3:43:15 Cominguez Ivan M (+)
1770 3:48:04 / 3:46:12 Sosa Omodey German M (+)
1771 3:48:07 / 3:47:28 Marcilla Jose Francisco M (+)
1772 3:48:09 / 3:46:23 Moreno Cespedes Mario Gerardo M (+)
1773 3:48:09 / 3:44:56 Cora Diego M (+)
1774 3:48:09 / 3:46:54 Noriega Florencia F (+)
1775 3:48:12 / 3:47:15 Cejas Julian M (+)
1776 3:48:15 / 3:44:37 Reckinger Sebastian Ernes M (+)
1777 3:48:16 / 3:47:17 Perata Antonela F (+)
1778 3:48:18 / 3:46:17 Mendes Igor Araujo M (+)
1779 3:48:19 / 3:46:43 Yuchark Marcelo M (+)
1780 3:48:20 / 3:47:35 Jesus Renato Luiz De M (+)
1781 3:48:23 / 3:48:08 Kulakowskj Juan M (+)
1782 3:48:24 / 3:46:23 Lichtenstein Daniel M (+)
1783 3:48:25 / 3:48:11 Disanto Alejandro Danie M (+)
1784 3:48:25 / 3:47:18 Andre Matias M (+)
1785 3:48:27 / 3:46:55 Marsiglio Renato M (+)
1786 3:48:28 / 3:47:46 Hernandez Christian M (+)
1787 3:48:32 / 3:48:15 Romero Carlos David M (+)
1788 3:48:32 / 3:45:46 Milanesi Jorge M (+)
1789 3:48:34 / 3:46:28 Pena Pinilla Eugenio M (+)
1790 3:48:35 / 3:46:40 Tallano Guillermo M (+)
1791 3:48:35 / 3:47:53 Quispe Albino Richard M (+)
1792 3:48:36 / 3:48:12 Tapia Ludwik M (+)
1793 3:48:36 / 3:47:35 Erro Gladis F (+)
1794 3:48:37 / 3:29:53 Berger Jesus M (+)
1795 3:48:37 / 3:48:02 Vago Andres Felipe M (+)
1796 3:48:39 / 3:46:41 Carrizo Rodrigo M (+)
1797 3:48:39 / 3:46:46 Di Modugno Gabriel M (+)
1798 3:48:39 / 3:46:09 Oliveira Patricia F (+)
1799 3:48:39 / 3:47:08 Parola Silvio M (+)
1800 3:48:41 / 3:47:14 Gargiulo Federico M (+)
1801 3:48:41 / 3:47:53 Videla Roberto M (+)
1802 3:48:42 / 3:48:05 Sicouri Daniel M (+)
1803 3:48:42 / 3:47:34 Ortellado Walter Pablo M (+)
1804 3:48:44 / 3:46:01 De Oliveira Teixeira Felipe M (+)
1805 3:48:46 / 3:47:50 Novarini Pablo Miguel M (+)
1806 3:48:48 / 3:48:24 Marquez Walter M (+)
1807 3:48:51 / 3:48:35 Degreef Daniela F (+)
1808 3:48:51 / 3:48:04 Dornelles Debora F (+)
1809 3:48:51 / 3:48:03 Leite Rafael M (+)
1810 3:48:52 / 3:46:52 Latasa Diego M (+)
1811 3:48:55 / 3:47:35 Jalil Susana F (+)
1812 3:48:56 / 3:45:09 Ramallo Florencia F (+)
1813 3:48:57 / 3:45:09 Moraes Jose M (+)
1814 3:48:57 / 3:47:25 Greczny Ines F (+)
1815 3:49:00 / 3:47:41 Herran Neumann Gustavo Javier M (+)
1816 3:49:03 / 3:48:38 Chiodini Martin M (+)
1817 3:49:03 / 3:48:40 Azenich Juan M (+)
1818 3:49:04 / 3:48:41 Gonzalez Juan Alberto M (+)
1819 3:49:04 / 3:47:41 Martins Rafael M (+)
1820 3:49:05 / 3:47:19 Gomes Rafael M (+)
1821 3:49:07 / 3:47:40 Ortiz Ezequiel M (+)
1822 3:49:10 / 3:48:45 Baz Cristian Diego M (+)
1823 3:49:11 / 3:47:05 Greco Juan Carlos M (+)
1824 3:49:11 / 3:48:46 Chumbita Javier M (+)
1825 3:49:15 / 3:48:52 Fernandez Diego M (+)
1826 3:49:17 / 3:44:30 Patrosso Mariano M (+)
1827 3:49:18 / 3:43:20 Rosales Natalia F (+)
1828 3:49:18 / 3:47:20 Moyano Jose M (+)
1829 3:49:18 / 3:49:06 Antico Damian M (+)
1830 3:49:21 / 3:47:18 Magalhaes Fernando M (+)
1831 3:49:22 / 3:46:05 Kavaliauskas Federico M (+)
1832 3:49:24 / 3:46:37 Carloni Marcelo Ballabe M (+)
1833 3:49:25 / 3:46:05 Prefeito Carina F (+)
1834 3:49:26 / 3:47:03 Falciroli Ribeiro Gorete F (+)
1835 3:49:28 / 3:47:53 Montenegro Marisol Soledad F (+)
1836 3:49:28 / 3:47:19 Monti Luciano Julian M (+)
1837 3:49:29 / 3:48:21 Anglada Diego Martin M (+)
1838 3:49:29 / 3:48:36 Sepulveda Christian M (+)
1839 3:49:31 / 3:47:46 Lencina Jose Luis M (+)
1840 3:49:33 / 3:48:42 Lino Thiago M (+)
1841 3:49:33 / 3:46:50 Cardoso Dantas Marcelo M (+)
1842 3:49:33 / 3:49:15 Idiarte Victor Ramon M (+)
1843 3:49:34 / 3:46:30 Guevara Mauricio M (+)
1844 3:49:34 / 3:48:54 Vidal Bazterrica Enrique M (+)
1845 3:49:37 / 3:49:15 Jeronymo Willian M (+)
1846 3:49:38 / 3:48:43 Salinas Jose Luis M (+)
1847 3:49:39 / 3:48:45 Bobadilla Mariano M (+)
1848 3:49:39 / 3:46:02 Agostini Fernando M (+)
1849 3:49:40 / 3:47:06 Medica Pablo M (+)
1850 3:49:41 / 3:48:07 Schiemann Diego Sebastian M (+)
1851 3:49:41 / 3:48:34 Diaz Pablo Luis M (+)
1852 3:49:42 / 3:48:05 Mora Luis M (+)
1853 3:49:43 / 3:47:42 Murphy Barbara F (+)
1854 3:49:43 / 3:48:46 Gambina Mariano M (+)
1855 3:49:43 / 3:49:01 Pinero Javier Eduardo M (+)
1856 3:49:45 / 3:48:50 Hernandez Hugo M (+)
1857 3:49:46 / 3:47:49 Jose Ruben Andres M (+)
1858 3:49:46 / 3:46:55 Guichon Jorge M (+)
1859 3:49:46 / 3:47:30 Naivirt Roberto Alejand M (+)
1860 3:49:46 / 3:48:25 Da Silva Moura Caio M (+)
1861 3:49:46 / 3:47:45 Aravena Carlos Alberto M (+)
1862 3:49:47 / 3:48:36 Moir Liddle Brian Roderick M (+)
1863 3:49:48 / 3:48:36 Reyes Plaza Ernesto Jose M (+)
1864 3:49:49 / 3:48:43 Cochet Sebastian M (+)
1865 3:49:50 / 3:48:42 Izidio Szpektor Erika Andrea F (+)
1866 3:49:51 / 3:49:51 Portillo Julio Cesar M (+)
1867 3:49:51 / 3:48:01 Gaia Patricia F (+)
1868 3:49:51 / 3:49:06 Taboada Juan Cruz M (+)
1869 3:49:52 / 3:48:05 Benito Juan Pablo M (+)
1870 3:49:53 / 3:49:27 Vasquez Adrian Hugo M (+)
1871 3:49:53 / 3:49:31 Cobo Gustavo M (+)
1872 3:49:55 / 3:47:44 Da Silva Eliezer Gabriel M (+)
1873 3:49:57 / 3:48:51 Patino Patroni Vanessa F (+)
1874 3:49:59 / 3:49:53 Rodriguez Mario Alberto M (+)
1875 3:49:59 / 3:48:33 Ilarregui Pedro Martin M (+)
1876 3:49:59 / 3:47:14 Sena Alexis M (+)
1877 3:49:59 / 3:48:34 Ladron De Guevara Tomas M (+)
1878 3:50:00 / 3:46:49 Serrano Sarmiento Aldo M (+)
1879 3:50:04 / 3:44:29 Tula Luis Octavio M (+)
1880 3:50:05 / 3:46:50 Gualtieri Guillermo M (+)
1881 3:50:05 / 3:46:26 Burdett Corrie F (+)
1882 3:50:06 / 3:47:51 Galluzzi Alejandro M (+)
1883 3:50:07 / 3:48:18 De La Vega Natalia Maria F (+)
1884 3:50:07 / 3:49:31 Diaz Jaime M (+)
1885 3:50:07 / 3:48:55 Obredor Omar Alejandro M (+)
1886 3:50:08 / 3:46:28 Gauna Dionisio M (+)
1887 3:50:08 / 3:47:55 Nanni Maria Eugenia F (+)
1888 3:50:08 / 3:47:48 Szkarlatiuk Ismael Andres M (+)
1889 3:50:10 / 3:48:29 Sciarrotta Valiente Lisandro Miguel M (+)
1890 3:50:10 / 3:48:28 Arigos Maria Florencia F (+)
1891 3:50:12 / 3:49:32 Toloza Mirta F (+)
1892 3:50:12 / 3:49:54 Coria Silvia Gabriela F (+)
1893 3:50:14 / 3:49:09 Tellado Lucas M (+)
1894 3:50:14 / 3:49:03 Etcheverria Franza Sebastian M (+)
1895 3:50:15 / 3:48:24 Abate Daniel M (+)
1896 3:50:17 / 3:35:58 Sciortino Matias M (+)
1897 3:50:17 / 3:50:05 Ramos Pablo Daniel M (+)
1898 3:50:18 / 3:49:14 Cambareri Pablo M (+)
1899 3:50:20 / 3:47:55 Tomino Quatrano Maria Lorena F (+)
1900 3:50:20 / 3:48:34 Alegre Emiliano Andres M (+)
1901 3:50:21 / 3:48:53 Valsangiacomo Mendez Nelson Joaquin M (+)
1902 3:50:22 / 3:49:10 Sotelo Dario Martin M (+)
1903 3:50:23 / 3:49:40 Policrisi Diego Fabian M (+)
1904 3:50:24 / 3:47:55 Fantin Noelia Lucia F (+)
1905 3:50:24 / 3:47:56 Sanchez Ana Victoria F (+)
1906 3:50:25 / 3:49:38 Torres Norberto M (+)
1907 3:50:25 / 3:49:38 Molina Diego Luis M (+)
1908 3:50:26 / 3:47:23 Pastorelli Leandro Andres M (+)
1909 3:50:26 / 3:47:11 Minucci Luis Alberto M (+)
1910 3:50:27 / 3:48:44 Rabasa Carlos M (+)
1911 3:50:28 / 3:47:35 Maria Leuda F (+)
1912 3:50:29 / 3:47:39 Rios Andrade Araujo Dart Clea F (+)
1913 3:50:29 / 3:50:21 Martinez Mauricio M (+)
1914 3:50:30 / 3:50:01 Trigo Andrea F (+)
1915 3:50:32 / 3:46:45 Pugliese Lucas M (+)
1916 3:50:35 / 3:49:52 Andrade Carlos M (+)
1917 3:50:36 / 3:50:06 Florentin Gustavo M (+)
1918 3:50:39 / 3:48:56 Sanoguera Hugo Javier M (+)
1919 3:50:39 / 3:50:22 Cialceta Diego M (+)
1920 3:50:40 / 3:48:54 Herrero Ana Elena F (+)
1921 3:50:42 / 3:48:43 Rodriguez Matias Gaston M (+)
1922 3:50:44 / 3:50:35 Palazzo Nicolas M (+)
1923 3:50:44 / 3:48:33 Barreira Vanusa F (+)
1924 3:50:44 / 3:49:14 Vazquez Marcelo Fabian M (+)
1925 3:50:46 / 3:49:17 Candia Duarte Jose Manuel M (+)
1926 3:50:46 / 3:50:28 Garcia Piccioni Natalia Maricel F (+)
1927 3:50:47 / 3:48:27 Brain Alejandro M (+)
1928 3:50:47 / 3:48:24 Chacur Alejandro M (+)
1929 3:50:48 / 3:47:35 Esperon Paola Silvana F (+)
1930 3:50:48 / 3:50:11 Osche Felix Marjorie F (+)
1931 3:50:52 / 3:49:05 Hijos Nemesia F (+)
1932 3:50:53 / 3:50:14 Montenegro Mariano Javier M (+)
1933 3:50:53 / 3:46:59 Vultorius Rodolfo M (+)
1934 3:50:53 / 3:48:54 Pera Facundo Jose M (+)
1935 3:50:54 / 3:50:10 Acevedo Ana F (+)
1936 3:50:54 / 3:48:06 Melfi Ezequiel M (+)
1937 3:50:54 / 3:49:40 Filgueira Leonardo M (+)
1938 3:50:56 / 3:48:35 Rearte Marcelo M (+)
1939 3:50:56 / 3:50:38 Pajaro Miguel M (+)
1940 3:50:58 / 3:48:07 Masis Montero Viviana F (+)
1941 3:50:58 / 3:48:53 Caceres Gaston M (+)
1942 3:50:58 / 3:50:18 De Ninis Eduardo M (+)
1943 3:50:59 / 3:46:00 Justus Phillipe M (+)
1944 3:50:59 / 3:49:42 Martino Javier M (+)
1945 3:50:59 / 3:48:50 Pancher Juliano M (+)
1946 3:51:02 / 3:48:14 Clarion Martin M (+)
1947 3:51:06 / 3:50:02 Tercia Mariana F (+)
1948 3:51:07 / 3:50:40 Barrionuevo Pablo M (+)
1949 3:51:08 / 3:47:56 Jacintho Douglas M (+)
1950 3:51:09 / 3:49:07 Quinteros Ricardo Daniel M (+)
1951 3:51:09 / 3:49:23 Marrero Javier M (+)
1952 3:51:11 / 3:48:56 Gonzalez Carlos M (+)
1953 3:51:12 / 3:49:24 Dominguez Juan Jose M (+)
1954 3:51:13 / 3:51:02 Grillo Juan M (+)
1955 3:51:14 / 3:49:20 Rodrigo Marmo Rodrigo Marmo D M (+)
1956 3:51:15 / 3:48:32 Avalos Jorge Osvaldo M (+)
1957 3:51:15 / 3:48:55 Sticca Cristian M (+)
1958 3:51:16 / 3:49:26 Moreno Marcus Vinicius M (+)
1959 3:51:17 / 3:47:36 Moncada Leonardo Javier M (+)
1960 3:51:17 / 3:50:02 Stricker Nahuel M (+)
1961 3:51:18 / 3:46:17 Fredes Lucas Nicolas M (+)
1962 3:51:18 / 3:49:28 Stronati Carlos M (+)
1963 3:51:20 / 3:51:02 Rodriguez Mariano Oscar M (+)
1964 3:51:20 / 3:47:02 Oprandi Lucas Gabriel M (+)
1965 3:51:20 / 3:49:23 Ponti Hernan Raul M (+)
1966 3:51:21 / 3:49:00 Farfan Carlos Oscar M (+)
1967 3:51:22 / 3:48:03 Torres Matias M (+)
1968 3:51:23 / 3:49:20 Gomez Marquez Adrian Oscar M (+)
1969 3:51:23 / 3:49:26 Amato Gabriel M (+)
1970 3:51:24 / 3:49:53 Markievich Andres Ignacio M (+)
1971 3:51:25 / 3:50:59 Menza Andres M (+)
1972 3:51:25 / 3:49:40 Davidovich Andres M (+)
1973 3:51:26 / 3:48:59 Martinez Bayon Pilar F (+)
1974 3:51:28 / 3:50:03 Ribeiro Sandro M (+)
1975 3:51:31 / 3:50:04 Rego Castro Juan Antonio M (+)
1976 3:51:31 / 3:50:40 Sandoval Ailen F (+)
1977 3:51:31 / 3:49:13 Martin Walter M (+)
1978 3:51:32 / 3:48:52 Garcia Pastormerlo Juan Matias M (+)
1979 3:51:34 / 3:46:08 Flores Ana Paula F (+)
1980 3:51:35 / 3:49:11 Aflalo Gustavo M (+)
1981 3:51:36 / 3:49:50 Santos Wellygton Perei M (+)
1982 3:51:38 / 3:50:04 Enrico Sebastian Matia M (+)
1983 3:51:38 / 3:49:32 Frugoni Zabala Pablo Mauricio M (+)
1984 3:51:39 / 3:50:05 Trudo Maria Victoria F (+)
1985 3:51:39 / 3:49:11 Minoda Fernando M (+)
1986 3:51:39 / 3:51:03 Camarero Paula Ines F (+)
1987 3:51:40 / 3:49:40 Zotskine Youssouf M (+)
1988 3:51:40 / 3:50:16 Perez Bernardez Leandro M (+)
1989 3:51:40 / 3:48:11 Montalto Osvaldo M (+)
1990 3:51:41 / 3:48:34 Fernandez Sergio Ariel M (+)
1991 3:51:44 / 3:50:51 Urrutia Martin Omar M (+)
1992 3:51:44 / 3:48:30 Sisti Martin Sebastia M (+)
1993 3:51:45 / 3:51:36 Aristegui Ramon Alberto M (+)
1994 3:51:45 / 3:50:24 Ramirez Patricia Paola F (+)
1995 3:51:45 / 3:50:25 Martino Sebastian M (+)
1996 3:51:46 / 3:50:11 Lescano Armando M (+)
1997 3:51:46 / 3:48:36 Gambaro Martin M (+)
1998 3:51:47 / 3:48:51 Luna Norberto M (+)
1999 3:51:50 / 3:50:35 Nalon Virginia F (+)
2000 3:51:52 / 3:51:02 Mateo Leandro M (+)
2001 3:51:53 / 3:50:44 Rodriguezm Gustavo Marcelo M (+)
2002 3:51:53 / 3:49:23 Giandon Noelia F (+)
2003 3:51:53 / 3:49:31 Valdecantos Silvina Julia F (+)
2004 3:51:56 / 3:51:47 Lagos Pezoa Marcos Antonio M (+)
2005 3:51:56 / 3:48:47 Turqui Lorena F (+)
2006 3:51:56 / 3:48:21 Ruiz Denis Emanuel M (+)
2007 3:51:57 / 3:49:56 Walpen Maximiliano Gas M (+)
2008 3:51:58 / 3:49:46 Liutvinas Federico M (+)
2009 3:52:01 / 3:49:58 Pacheco Grau Carolina Alejan F (+)
2010 3:52:03 / 3:48:17 Galian Jorge M (+)
2011 3:52:05 / 3:49:23 De Souza Carvalho Fi Helio M (+)
2012 3:52:05 / 3:51:43 Arboleda Marcelo Alejand M (+)
2013 3:52:05 / 3:51:25 Da Costa Cesar Fabian M (+)
2014 3:52:07 / 3:51:38 Freitas Thiago A M (+)
2015 3:52:08 / 3:48:41 Marinelli Fernando Hector M (+)
2016 3:52:09 / 3:51:59 Barrios Eduardo M (+)
2017 3:52:09 / 3:51:05 Barria Raul M (+)
2018 3:52:09 / 3:49:22 Cata Jose Gregorio M (+)
2019 3:52:09 / 3:51:47 Sayago Roberto M (+)
2020 3:52:13 / 3:50:26 Sosa Maria Marta F (+)
2021 3:52:16 / 3:49:51 Marino German M (+)
2022 3:52:19 / 3:51:50 Rodriguez Gustavo Hernan M (+)
2023 3:52:19 / 3:49:59 Sfascia Franco Alejandr M (+)
2024 3:52:20 / 3:49:07 Candeias Kuster Diogo M (+)
2025 3:52:20 / 3:49:35 Silveira Yamaguchi Fabio M (+)
2026 3:52:22 / 3:50:56 Mikkelsen Loth Javier Maximili M (+)
2027 3:52:22 / 3:49:21 Da Silva Carina Maria F (+)
2028 3:52:23 / 3:50:20 Garofalo Diego M (+)
2029 3:52:25 / 3:51:34 Le-Bert Barison Juan Pablo M (+)
2030 3:52:27 / 3:51:57 Rollano Manriquez Gregoria F (+)
2031 3:52:27 / 3:49:45 Motolo Eduardo Francis M (+)
2032 3:52:30 / 3:49:32 Esper Eduardo M (+)
2033 3:52:31 / 3:52:15 Fuschino Mario M (+)
2034 3:52:32 / 3:50:08 Nicollier Beatriz F (+)
2035 3:52:33 / 3:50:31 Amorim Miranda De Ol Graciane F (+)
2036